Time,TemperatureF,DewpointF,PressureIn,WindDirection,WindDirectionDegrees,WindSpeedMPH,WindSpeedGustMPH,Humidity,HourlyPrecipIn,Conditions,Clouds,dailyrainin,SolarRadiationWatts/m^2,SoftwareType,DateUTC
2013-10-18 00:00:00,42.4,39.1,29.90,SW,234,0.0,0.0,88,0.00,,,0.00,0,Wunderground v.1.15,2013-10-18 05:00:00,
2013-10-18 00:03:00,42.3,39.0,29.90,SW,234,0.0,0.0,88,0.00,,,0.00,0,Wunderground v.1.15,2013-10-18 05:03:00,
2013-10-18 00:04:00,42.3,39.0,29.90,SW,234,0.0,0.0,88,0.00,,,0.00,0,Wunderground v.1.15,2013-10-18 05:04:00,
2013-10-18 00:06:00,42.3,39.0,29.90,SW,234,0.0,0.0,88,0.00,,,0.00,0,Wunderground v.1.15,2013-10-18 05:06:00,
2013-10-18 00:07:00,42.3,39.0,29.90,SW,234,0.0,0.0,88,0.00,,,0.00,0,Wunderground v.1.15,2013-10-18 05:07:00,
2013-10-18 00:10:00,42.2,38.9,29.90,SW,234,0.0,0.0,88,0.00,,,0.00,0,Wunderground v.1.15,2013-10-18 05:10:00,
2013-10-18 00:12:00,42.2,39.2,29.90,SW,234,0.0,0.0,89,0.00,,,0.00,0,Wunderground v.1.15,2013-10-18 05:12:00,
2013-10-18 00:13:00,42.2,39.2,29.90,SW,234,0.0,0.0,89,0.00,,,0.00,0,Wunderground v.1.15,2013-10-18 05:13:00,
2013-10-18 00:15:00,42.2,39.2,29.90,SW,234,0.0,0.0,89,0.00,,,0.00,0,Wunderground v.1.15,2013-10-18 05:15:00,
2013-10-18 00:16:00,42.2,39.2,29.90,SW,234,0.0,0.0,89,0.00,,,0.00,0,Wunderground v.1.15,2013-10-18 05:16:00,
2013-10-18 00:17:00,42.2,39.2,29.90,SW,234,0.0,0.0,89,0.00,,,0.00,0,Wunderground v.1.15,2013-10-18 05:17:00,
2013-10-18 00:18:00,42.2,39.2,29.90,SW,234,0.0,0.0,89,0.00,,,0.00,0,Wunderground v.1.15,2013-10-18 05:18:00,
2013-10-18 00:22:00,42.2,39.2,29.90,SW,234,0.0,0.0,89,0.00,,,0.00,0,Wunderground v.1.15,2013-10-18 05:22:00,
2013-10-18 00:26:00,42.1,39.1,29.90,SW,234,0.0,0.0,89,0.00,,,0.00,0,Wunderground v.1.15,2013-10-18 05:26:00,
2013-10-18 00:27:00,42.1,39.4,29.90,SW,234,0.0,0.0,90,0.00,,,0.00,0,Wunderground v.1.15,2013-10-18 05:27:00,
2013-10-18 00:28:00,42.2,39.5,29.90,SW,234,0.0,0.0,90,0.00,,,0.00,0,Wunderground v.1.15,2013-10-18 05:28:00,
2013-10-18 00:31:00,42.2,39.5,29.90,SW,234,0.0,0.0,90,0.00,,,0.00,0,Wunderground v.1.15,2013-10-18 05:31:00,
2013-10-18 00:34:00,42.2,39.2,29.90,SW,234,0.0,0.0,89,0.00,,,0.00,0,Wunderground v.1.15,2013-10-18 05:34:00,
2013-10-18 00:35:00,42.1,39.1,29.90,SW,234,0.0,0.0,89,0.00,,,0.00,0,Wunderground v.1.15,2013-10-18 05:35:00,
2013-10-18 00:38:00,42.2,39.5,29.90,SW,234,0.0,0.0,90,0.00,,,0.00,0,Wunderground v.1.15,2013-10-18 05:38:00,
2013-10-18 00:39:00,42.2,39.5,29.90,SW,234,0.0,0.0,90,0.00,,,0.00,0,Wunderground v.1.15,2013-10-18 05:39:00,
2013-10-18 00:42:00,42.2,39.5,29.90,SW,234,0.0,0.0,90,0.00,,,0.00,0,Wunderground v.1.15,2013-10-18 05:42:00,
2013-10-18 00:44:00,42.2,39.5,29.90,SW,234,0.0,0.0,90,0.00,,,0.00,0,Wunderground v.1.15,2013-10-18 05:44:00,
2013-10-18 00:45:00,42.2,39.5,29.90,SW,234,0.0,0.0,90,0.00,,,0.00,0,Wunderground v.1.15,2013-10-18 05:45:00,
2013-10-18 00:49:00,42.3,39.6,29.90,SW,234,0.0,0.0,90,0.00,,,0.00,0,Wunderground v.1.15,2013-10-18 05:49:00,
2013-10-18 00:51:00,42.3,39.6,29.90,SW,234,0.0,0.0,90,0.00,,,0.00,0,Wunderground v.1.15,2013-10-18 05:51:00,
2013-10-18 00:52:00,42.3,39.6,29.90,SW,234,0.0,0.0,90,0.00,,,0.00,0,Wunderground v.1.15,2013-10-18 05:52:00,
2013-10-18 00:55:00,42.4,39.7,29.90,SW,234,0.0,0.0,90,0.00,,,0.00,0,Wunderground v.1.15,2013-10-18 05:55:00,
2013-10-18 00:56:00,42.4,39.7,29.90,SW,234,0.0,0.0,90,0.00,,,0.00,0,Wunderground v.1.15,2013-10-18 05:56:00,
2013-10-18 00:59:00,42.5,39.5,29.90,SW,234,0.0,0.0,89,0.00,,,0.00,0,Wunderground v.1.15,2013-10-18 05:59:00,
2013-10-18 01:01:00,42.5,39.5,29.90,SW,234,0.0,0.0,89,0.00,,,0.00,0,Wunderground v.1.15,2013-10-18 06:01:00,
2013-10-18 01:02:00,42.5,39.5,29.90,SW,234,0.0,0.0,89,0.00,,,0.00,0,Wunderground v.1.15,2013-10-18 06:02:00,
2013-10-18 01:04:00,42.7,39.7,29.90,SW,234,0.0,0.0,89,0.00,,,0.00,0,Wunderground v.1.15,2013-10-18 06:04:00,
2013-10-18 01:07:00,42.8,39.8,29.90,SW,234,0.0,0.0,89,0.00,,,0.00,0,Wunderground v.1.15,2013-10-18 06:07:00,
2013-10-18 01:08:00,42.8,39.8,29.90,SW,234,0.0,0.0,89,0.00,,,0.00,0,Wunderground v.1.15,2013-10-18 06:08:00,
2013-10-18 01:09:00,42.9,39.9,29.90,SW,234,0.0,0.0,89,0.00,,,0.00,0,Wunderground v.1.15,2013-10-18 06:09:00,
2013-10-18 01:10:00,42.9,39.9,29.90,SW,234,0.0,0.0,89,0.00,,,0.00,0,Wunderground v.1.15,2013-10-18 06:10:00,
2013-10-18 01:11:00,43.0,40.0,29.90,SW,234,0.0,0.0,89,0.00,,,0.00,0,Wunderground v.1.15,2013-10-18 06:11:00,
2013-10-18 01:15:00,43.1,40.1,29.90,SW,234,0.0,0.0,89,0.00,,,0.00,0,Wunderground v.1.15,2013-10-18 06:15:00,
2013-10-18 01:16:00,43.1,40.1,29.90,SW,234,0.0,0.0,89,0.00,,,0.00,0,Wunderground v.1.15,2013-10-18 06:16:00,
2013-10-18 01:17:00,43.1,40.1,29.89,SW,234,0.0,0.0,89,0.00,,,0.00,0,Wunderground v.1.15,2013-10-18 06:17:00,
2013-10-18 01:20:00,43.2,40.2,29.90,SW,234,0.0,0.0,89,0.00,,,0.00,0,Wunderground v.1.15,2013-10-18 06:20:00,
2013-10-18 01:22:00,43.2,40.2,29.90,SW,234,0.0,0.0,89,0.00,,,0.00,0,Wunderground v.1.15,2013-10-18 06:22:00,
2013-10-18 01:23:00,43.2,39.9,29.90,SW,234,0.0,0.0,88,0.00,,,0.00,0,Wunderground v.1.15,2013-10-18 06:23:00,
2013-10-18 01:25:00,43.3,40.0,29.90,SW,234,0.0,0.0,88,0.00,,,0.00,0,Wunderground v.1.15,2013-10-18 06:25:00,
2013-10-18 01:27:00,43.3,40.3,29.90,SW,234,0.0,0.0,89,0.00,,,0.00,0,Wunderground v.1.15,2013-10-18 06:27:00,
2013-10-18 01:32:00,43.6,40.6,29.90,SW,234,0.0,0.0,89,0.00,,,0.00,0,Wunderground v.1.15,2013-10-18 06:32:00,
2013-10-18 01:35:00,43.8,40.8,29.90,SW,234,0.0,1.0,89,0.00,,,0.00,0,Wunderground v.1.15,2013-10-18 06:35:00,
2013-10-18 01:39:00,44.0,40.7,29.90,SW,234,0.0,1.0,88,0.00,,,0.00,0,Wunderground v.1.15,2013-10-18 06:39:00,
2013-10-18 01:40:00,44.1,40.8,29.90,SW,234,0.0,0.0,88,0.00,,,0.00,0,Wunderground v.1.15,2013-10-18 06:40:00,
2013-10-18 01:41:00,44.2,40.9,29.90,SW,234,2.0,2.0,88,0.00,,,0.00,0,Wunderground v.1.15,2013-10-18 06:41:00,
2013-10-18 01:42:00,44.3,41.0,29.90,SW,234,3.0,3.0,88,0.00,,,0.00,0,Wunderground v.1.15,2013-10-18 06:42:00,
2013-10-18 01:44:00,44.4,41.1,29.90,SW,234,0.0,3.0,88,0.00,,,0.00,0,Wunderground v.1.15,2013-10-18 06:44:00,
2013-10-18 01:45:00,44.5,41.2,29.89,SW,234,0.0,3.0,88,0.00,,,0.00,0,Wunderground v.1.15,2013-10-18 06:45:00,
2013-10-18 01:49:00,44.7,41.1,29.90,SW,234,0.0,3.0,87,0.00,,,0.00,0,Wunderground v.1.15,2013-10-18 06:49:00,
2013-10-18 01:50:00,44.7,41.1,29.90,SW,234,2.0,2.0,87,0.00,,,0.00,0,Wunderground v.1.15,2013-10-18 06:50:00,
2013-10-18 01:51:00,44.8,41.2,29.90,SW,234,0.0,2.0,87,0.00,,,0.00,0,Wunderground v.1.15,2013-10-18 06:51:00,
2013-10-18 01:56:00,45.2,41.3,29.90,SW,232,0.0,2.0,86,0.00,,,0.00,0,Wunderground v.1.15,2013-10-18 06:56:00,
2013-10-18 01:57:00,45.2,41.3,29.90,SW,232,0.0,2.0,86,0.00,,,0.00,0,Wunderground v.1.15,2013-10-18 06:57:00,
2013-10-18 01:58:00,45.3,41.4,29.90,SW,232,4.0,4.0,86,0.00,,,0.00,0,Wunderground v.1.15,2013-10-18 06:58:00,
2013-10-18 02:01:00,45.4,41.2,29.89,SW,231,1.0,3.0,85,0.00,,,0.00,0,Wunderground v.1.15,2013-10-18 07:01:00,
2013-10-18 02:03:00,45.6,41.0,29.90,SW,231,1.0,3.0,84,0.00,,,0.00,0,Wunderground v.1.15,2013-10-18 07:03:00,
2013-10-18 02:04:00,45.7,41.1,29.89,SW,231,0.0,3.0,84,0.00,,,0.00,0,Wunderground v.1.15,2013-10-18 07:04:00,
2013-10-18 02:06:00,45.8,41.2,29.89,SW,231,0.0,3.0,84,0.00,,,0.00,0,Wunderground v.1.15,2013-10-18 07:06:00,
2013-10-18 02:07:00,45.9,41.0,29.89,SW,231,0.0,3.0,83,0.00,,,0.00,0,Wunderground v.1.15,2013-10-18 07:07:00,
2013-10-18 02:08:00,46.0,41.1,29.89,SW,231,1.0,3.0,83,0.00,,,0.00,0,Wunderground v.1.15,2013-10-18 07:08:00,
2013-10-18 02:09:00,46.1,41.2,29.89,SW,231,0.0,3.0,83,0.00,,,0.00,0,Wunderground v.1.15,2013-10-18 07:09:00,
2013-10-18 02:11:00,46.2,41.3,29.89,SW,231,0.0,2.0,83,0.00,,,0.00,0,Wunderground v.1.15,2013-10-18 07:11:00,
2013-10-18 02:12:00,46.2,41.3,29.89,SW,231,0.0,2.0,83,0.00,,,0.00,0,Wunderground v.1.15,2013-10-18 07:12:00,
2013-10-18 02:14:00,46.3,41.1,29.89,SW,231,0.0,3.0,82,0.00,,,0.00,0,Wunderground v.1.15,2013-10-18 07:14:00,
2013-10-18 02:16:00,46.4,41.2,29.89,SW,230,0.0,3.0,82,0.00,,,0.00,0,Wunderground v.1.15,2013-10-18 07:16:00,
2013-10-18 02:17:00,46.5,41.3,29.89,SW,230,2.0,3.0,82,0.00,,,0.00,0,Wunderground v.1.15,2013-10-18 07:17:00,
2013-10-18 02:18:00,46.5,41.0,29.89,SW,230,0.0,3.0,81,0.00,,,0.00,0,Wunderground v.1.15,2013-10-18 07:18:00,
2013-10-18 02:19:00,46.5,41.0,29.89,SW,230,0.0,3.0,81,0.00,,,0.00,0,Wunderground v.1.15,2013-10-18 07:19:00,
2013-10-18 02:22:00,46.6,41.1,29.89,SW,230,2.0,2.0,81,0.00,,,0.00,0,Wunderground v.1.15,2013-10-18 07:22:00,
2013-10-18 02:23:00,46.7,41.2,29.89,SW,230,3.0,4.0,81,0.00,,,0.00,0,Wunderground v.1.15,2013-10-18 07:23:00,
2013-10-18 02:24:00,46.7,41.2,29.89,SW,230,2.0,4.0,81,0.00,,,0.00,0,Wunderground v.1.15,2013-10-18 07:24:00,
2013-10-18 02:25:00,46.8,41.3,29.89,SW,230,1.0,4.0,81,0.00,,,0.00,0,Wunderground v.1.15,2013-10-18 07:25:00,
2013-10-18 02:27:00,46.8,41.0,29.89,SW,229,0.0,4.0,80,0.00,,,0.00,0,Wunderground v.1.15,2013-10-18 07:27:00,
2013-10-18 02:28:00,46.9,41.1,29.89,SW,229,2.0,4.0,80,0.00,,,0.00,0,Wunderground v.1.15,2013-10-18 07:28:00,
2013-10-18 02:29:00,46.9,41.1,29.89,SW,229,4.0,4.0,80,0.00,,,0.00,0,Wunderground v.1.15,2013-10-18 07:29:00,
2013-10-18 02:30:00,46.9,41.1,29.89,SW,229,1.0,4.0,80,0.00,,,0.00,0,Wunderground v.1.15,2013-10-18 07:30:00,
2013-10-18 02:33:00,46.9,41.1,29.89,SW,229,0.0,5.0,80,0.00,,,0.00,0,Wunderground v.1.15,2013-10-18 07:33:00,
2013-10-18 02:35:00,46.9,41.1,29.89,SW,228,1.0,5.0,80,0.00,,,0.00,0,Wunderground v.1.15,2013-10-18 07:35:00,
2013-10-18 02:36:00,47.0,41.1,29.89,SW,228,3.0,5.0,80,0.00,,,0.00,0,Wunderground v.1.15,2013-10-18 07:36:00,
2013-10-18 02:38:00,47.0,41.1,29.89,SW,228,0.0,5.0,80,0.00,,,0.00,0,Wunderground v.1.15,2013-10-18 07:38:00,
2013-10-18 02:39:00,47.0,41.1,29.89,SW,228,0.0,5.0,80,0.00,,,0.00,0,Wunderground v.1.15,2013-10-18 07:39:00,
2013-10-18 02:40:00,47.0,41.1,29.89,SW,228,2.0,2.0,80,0.00,,,0.00,0,Wunderground v.1.15,2013-10-18 07:40:00,
2013-10-18 02:41:00,47.0,41.1,29.89,SW,228,2.0,3.0,80,0.00,,,0.00,0,Wunderground v.1.15,2013-10-18 07:41:00,
2013-10-18 02:44:00,47.0,41.1,29.89,SW,228,0.0,3.0,80,0.00,,,0.00,0,Wunderground v.1.15,2013-10-18 07:44:00,
2013-10-18 02:45:00,47.0,41.5,29.89,SW,228,2.0,3.0,81,0.00,,,0.00,0,Wunderground v.1.15,2013-10-18 07:45:00,
2013-10-18 02:46:00,47.0,41.5,29.89,SW,228,0.0,3.0,81,0.00,,,0.00,0,Wunderground v.1.15,2013-10-18 07:46:00,
2013-10-18 02:49:00,46.9,41.1,29.89,SW,228,3.0,3.0,80,0.00,,,0.00,0,Wunderground v.1.15,2013-10-18 07:49:00,
2013-10-18 02:51:00,46.9,41.1,29.89,SW,228,0.0,4.0,80,0.00,,,0.00,0,Wunderground v.1.15,2013-10-18 07:51:00,
2013-10-18 02:52:00,46.9,41.1,29.89,SW,228,2.0,4.0,80,0.00,,,0.00,0,Wunderground v.1.15,2013-10-18 07:52:00,
2013-10-18 02:54:00,46.9,41.1,29.89,SW,221,0.0,5.0,80,0.00,,,0.00,0,Wunderground v.1.15,2013-10-18 07:54:00,
2013-10-18 02:55:00,47.0,41.1,29.89,SW,221,0.0,5.0,80,0.00,,,0.00,0,Wunderground v.1.15,2013-10-18 07:55:00,
2013-10-18 02:56:00,47.0,41.1,29.89,SW,221,0.0,5.0,80,0.00,,,0.00,0,Wunderground v.1.15,2013-10-18 07:56:00,
2013-10-18 02:57:00,47.0,41.1,29.89,SW,221,2.0,5.0,80,0.00,,,0.00,0,Wunderground v.1.15,2013-10-18 07:57:00,
2013-10-18 02:59:00,47.0,41.1,29.89,SW,220,3.0,5.0,80,0.00,,,0.00,0,Wunderground v.1.15,2013-10-18 07:59:00,
2013-10-18 03:00:00,47.0,41.1,29.89,SW,220,4.0,4.0,80,0.00,,,0.00,0,Wunderground v.1.15,2013-10-18 08:00:00,
2013-10-18 03:01:00,47.1,40.9,29.88,SW,220,3.0,4.0,79,0.00,,,0.00,0,Wunderground v.1.15,2013-10-18 08:01:00,
2013-10-18 03:02:00,47.1,40.9,29.88,SW,219,4.0,5.0,79,0.00,,,0.00,0,Wunderground v.1.15,2013-10-18 08:02:00,
2013-10-18 03:04:00,47.2,41.0,29.88,SW,218,0.0,5.0,79,0.00,,,0.00,0,Wunderground v.1.15,2013-10-18 08:04:00,
2013-10-18 03:05:00,47.2,41.3,29.88,SW,218,3.0,5.0,80,0.00,,,0.00,0,Wunderground v.1.15,2013-10-18 08:05:00,
2013-10-18 03:06:00,47.2,41.3,29.88,SW,218,0.0,5.0,80,0.00,,,0.00,0,Wunderground v.1.15,2013-10-18 08:06:00,
2013-10-18 03:07:00,47.2,41.3,29.88,SW,218,1.0,5.0,80,0.00,,,0.00,0,Wunderground v.1.15,2013-10-18 08:07:00,
2013-10-18 03:08:00,47.2,41.3,29.88,SW,218,2.0,5.0,80,0.00,,,0.00,0,Wunderground v.1.15,2013-10-18 08:08:00,
2013-10-18 03:09:00,47.2,41.0,29.88,SW,217,2.0,5.0,79,0.00,,,0.00,0,Wunderground v.1.15,2013-10-18 08:09:00,
2013-10-18 03:10:00,47.2,41.0,29.88,SW,217,3.0,3.0,79,0.00,,,0.00,0,Wunderground v.1.15,2013-10-18 08:10:00,
2013-10-18 03:11:00,47.2,41.0,29.88,SW,217,2.0,4.0,79,0.00,,,0.00,0,Wunderground v.1.15,2013-10-18 08:11:00,
2013-10-18 03:12:00,47.2,41.0,29.88,SSW,195,3.0,7.0,79,0.00,,,0.00,0,Wunderground v.1.15,2013-10-18 08:12:00,
2013-10-18 03:13:00,47.2,41.0,29.88,SSW,195,3.0,7.0,79,0.00,,,0.00,0,Wunderground v.1.15,2013-10-18 08:13:00,
2013-10-18 03:15:00,47.3,41.1,29.88,South,188,4.0,7.0,79,0.00,,,0.00,0,Wunderground v.1.15,2013-10-18 08:15:00,
2013-10-18 03:16:00,47.3,41.1,29.88,South,188,0.0,7.0,79,0.00,,,0.00,0,Wunderground v.1.15,2013-10-18 08:16:00,
2013-10-18 03:17:00,47.3,41.1,29.88,South,188,1.0,7.0,79,0.00,,,0.00,0,Wunderground v.1.15,2013-10-18 08:17:00,
2013-10-18 03:19:00,47.3,41.4,29.88,South,188,1.0,7.0,80,0.00,,,0.00,0,Wunderground v.1.15,2013-10-18 08:19:00,
2013-10-18 03:20:00,47.3,41.4,29.88,South,188,1.0,2.0,80,0.00,,,0.00,0,Wunderground v.1.15,2013-10-18 08:20:00,
2013-10-18 03:22:00,47.3,41.4,29.88,South,188,0.0,2.0,80,0.00,,,0.00,0,Wunderground v.1.15,2013-10-18 08:22:00,
2013-10-18 03:23:00,47.3,41.4,29.88,South,188,1.0,2.0,80,0.00,,,0.00,0,Wunderground v.1.15,2013-10-18 08:23:00,
2013-10-18 03:24:00,47.3,41.4,29.88,South,188,0.0,2.0,80,0.00,,,0.00,0,Wunderground v.1.15,2013-10-18 08:24:00,
2013-10-18 03:25:00,47.3,41.4,29.88,South,188,1.0,3.0,80,0.00,,,0.00,0,Wunderground v.1.15,2013-10-18 08:25:00,
2013-10-18 03:27:00,47.3,41.1,29.88,South,190,5.0,6.0,79,0.00,,,0.00,0,Wunderground v.1.15,2013-10-18 08:27:00,
2013-10-18 03:28:00,47.3,41.1,29.88,SSW,196,8.0,8.0,79,0.00,,,0.00,0,Wunderground v.1.15,2013-10-18 08:28:00,
2013-10-18 03:30:00,47.4,41.2,29.88,South,188,3.0,6.0,79,0.00,,,0.00,0,Wunderground v.1.15,2013-10-18 08:30:00,
2013-10-18 03:31:00,47.3,41.1,29.88,South,188,3.0,6.0,79,0.00,,,0.00,0,Wunderground v.1.15,2013-10-18 08:31:00,
2013-10-18 03:33:00,47.4,41.2,29.87,South,188,1.0,6.0,79,0.00,,,0.00,0,Wunderground v.1.15,2013-10-18 08:33:00,
2013-10-18 03:34:00,47.4,41.2,29.87,South,188,1.0,6.0,79,0.00,,,0.00,0,Wunderground v.1.15,2013-10-18 08:34:00,
2013-10-18 03:35:00,47.4,41.2,29.88,South,188,0.0,6.0,79,0.00,,,0.00,0,Wunderground v.1.15,2013-10-18 08:35:00,
2013-10-18 03:36:00,47.4,41.2,29.87,South,188,1.0,6.0,79,0.00,,,0.00,0,Wunderground v.1.15,2013-10-18 08:36:00,
2013-10-18 03:38:00,47.3,41.1,29.87,South,188,1.0,6.0,79,0.00,,,0.00,0,Wunderground v.1.15,2013-10-18 08:38:00,
2013-10-18 03:39:00,47.3,41.1,29.87,South,188,2.0,6.0,79,0.00,,,0.00,0,Wunderground v.1.15,2013-10-18 08:39:00,
2013-10-18 03:40:00,47.3,41.1,29.87,South,188,2.0,3.0,79,0.00,,,0.00,0,Wunderground v.1.15,2013-10-18 08:40:00,
2013-10-18 03:41:00,47.3,40.8,29.87,South,188,0.0,3.0,78,0.00,,,0.00,0,Wunderground v.1.15,2013-10-18 08:41:00,
2013-10-18 03:43:00,47.3,40.8,29.88,South,188,0.0,4.0,78,0.00,,,0.00,0,Wunderground v.1.15,2013-10-18 08:43:00,
2013-10-18 03:44:00,47.3,40.8,29.88,South,188,0.0,4.0,78,0.00,,,0.00,0,Wunderground v.1.15,2013-10-18 08:44:00,
2013-10-18 03:45:00,47.3,40.8,29.88,South,188,2.0,4.0,78,0.00,,,0.00,0,Wunderground v.1.15,2013-10-18 08:45:00,
2013-10-18 03:46:00,47.3,40.8,29.88,South,188,3.0,4.0,78,0.00,,,0.00,0,Wunderground v.1.15,2013-10-18 08:46:00,
2013-10-18 03:47:00,47.3,40.8,29.88,South,188,0.0,4.0,78,0.00,,,0.00,0,Wunderground v.1.15,2013-10-18 08:47:00,
2013-10-18 03:49:00,47.3,40.8,29.88,South,188,2.0,4.0,78,0.00,,,0.00,0,Wunderground v.1.15,2013-10-18 08:49:00,
2013-10-18 03:50:00,47.3,41.1,29.88,SSW,195,4.0,4.0,79,0.00,,,0.00,0,Wunderground v.1.15,2013-10-18 08:50:00,
2013-10-18 03:51:00,47.2,40.7,29.88,SSW,195,3.0,4.0,78,0.00,,,0.00,0,Wunderground v.1.15,2013-10-18 08:51:00,
2013-10-18 03:52:00,47.2,40.7,29.88,SSW,195,2.0,4.0,78,0.00,,,0.00,0,Wunderground v.1.15,2013-10-18 08:52:00,
2013-10-18 03:53:00,47.2,40.7,29.88,SSW,194,3.0,6.0,78,0.00,,,0.00,0,Wunderground v.1.15,2013-10-18 08:53:00,
2013-10-18 03:55:00,47.2,40.7,29.87,SSW,194,1.0,6.0,78,0.00,,,0.00,0,Wunderground v.1.15,2013-10-18 08:55:00,
2013-10-18 03:56:00,47.2,40.7,29.87,SSW,194,2.0,6.0,78,0.00,,,0.00,0,Wunderground v.1.15,2013-10-18 08:56:00,
2013-10-18 03:58:00,47.2,40.7,29.88,SSW,194,0.0,6.0,78,0.00,,,0.00,0,Wunderground v.1.15,2013-10-18 08:58:00,
2013-10-18 04:00:00,47.2,40.7,29.87,SSW,194,0.0,2.0,78,0.00,,,0.00,0,Wunderground v.1.15,2013-10-18 09:00:00,
2013-10-18 04:01:00,47.2,40.7,29.87,SSW,194,0.0,2.0,78,0.00,,,0.00,0,Wunderground v.1.15,2013-10-18 09:01:00,
2013-10-18 04:02:00,47.2,40.7,29.88,SSW,194,3.0,3.0,78,0.00,,,0.00,0,Wunderground v.1.15,2013-10-18 09:02:00,
2013-10-18 04:03:00,47.2,40.7,29.88,SSW,194,0.0,3.0,78,0.00,,,0.00,0,Wunderground v.1.15,2013-10-18 09:03:00,
2013-10-18 04:05:00,47.2,40.7,29.87,SSW,194,1.0,3.0,78,0.00,,,0.00,0,Wunderground v.1.15,2013-10-18 09:05:00,
2013-10-18 04:06:00,47.2,40.7,29.87,SSW,194,1.0,3.0,78,0.00,,,0.00,0,Wunderground v.1.15,2013-10-18 09:06:00,
2013-10-18 04:07:00,47.2,40.7,29.88,SSW,194,1.0,3.0,78,0.00,,,0.00,0,Wunderground v.1.15,2013-10-18 09:07:00,
2013-10-18 04:08:00,47.2,40.7,29.88,SSW,194,3.0,3.0,78,0.00,,,0.00,0,Wunderground v.1.15,2013-10-18 09:08:00,
2013-10-18 04:11:00,47.2,40.7,29.88,SSW,194,3.0,3.0,78,0.00,,,0.00,0,Wunderground v.1.15,2013-10-18 09:11:00,
2013-10-18 04:12:00,47.3,40.8,29.88,SSW,194,3.0,4.0,78,0.00,,,0.00,0,Wunderground v.1.15,2013-10-18 09:12:00,
2013-10-18 04:13:00,47.3,40.8,29.88,SSW,194,2.0,4.0,78,0.00,,,0.00,0,Wunderground v.1.15,2013-10-18 09:13:00,
2013-10-18 04:14:00,47.3,40.8,29.88,SSW,194,2.0,4.0,78,0.00,,,0.00,0,Wunderground v.1.15,2013-10-18 09:14:00,
2013-10-18 04:16:00,47.4,40.6,29.88,SSW,199,4.0,5.0,77,0.00,,,0.00,0,Wunderground v.1.15,2013-10-18 09:16:00,
2013-10-18 04:17:00,47.4,40.6,29.88,SSW,205,4.0,6.0,77,0.00,,,0.00,0,Wunderground v.1.15,2013-10-18 09:17:00,
2013-10-18 04:18:00,47.5,40.6,29.88,SSW,205,3.0,6.0,77,0.00,,,0.00,0,Wunderground v.1.15,2013-10-18 09:18:00,
2013-10-18 04:20:00,47.6,40.7,29.88,SSW,205,2.0,3.0,77,0.00,,,0.00,0,Wunderground v.1.15,2013-10-18 09:20:00,
2013-10-18 04:21:00,47.6,40.7,29.88,SSW,205,4.0,5.0,77,0.00,,,0.00,0,Wunderground v.1.15,2013-10-18 09:21:00,
2013-10-18 04:22:00,47.6,40.7,29.88,SSW,205,4.0,5.0,77,0.00,,,0.00,0,Wunderground v.1.15,2013-10-18 09:22:00,
2013-10-18 04:23:00,47.6,40.4,29.88,SSW,205,3.0,5.0,76,0.00,,,0.00,0,Wunderground v.1.15,2013-10-18 09:23:00,
2013-10-18 04:26:00,47.7,40.5,29.88,SSW,205,0.0,5.0,76,0.00,,,0.00,0,Wunderground v.1.15,2013-10-18 09:26:00,
2013-10-18 04:27:00,47.7,40.5,29.88,SSW,205,0.0,5.0,76,0.00,,,0.00,0,Wunderground v.1.15,2013-10-18 09:27:00,
2013-10-18 04:28:00,47.7,40.5,29.88,SSW,205,1.0,5.0,76,0.00,,,0.00,0,Wunderground v.1.15,2013-10-18 09:28:00,
2013-10-18 04:29:00,47.7,40.5,29.88,SSW,205,3.0,5.0,76,0.00,,,0.00,0,Wunderground v.1.15,2013-10-18 09:29:00,
2013-10-18 04:31:00,47.7,40.8,29.88,SSW,205,2.0,6.0,77,0.00,,,0.00,0,Wunderground v.1.15,2013-10-18 09:31:00,
2013-10-18 04:32:00,47.7,40.5,29.88,SSW,205,2.0,6.0,76,0.00,,,0.00,0,Wunderground v.1.15,2013-10-18 09:32:00,
2013-10-18 04:34:00,47.7,40.8,29.88,SSW,205,1.0,6.0,77,0.00,,,0.00,0,Wunderground v.1.15,2013-10-18 09:34:00,
2013-10-18 04:35:00,47.7,40.8,29.88,SSW,208,5.0,6.0,77,0.00,,,0.00,0,Wunderground v.1.15,2013-10-18 09:35:00,
2013-10-18 04:36:00,47.7,40.5,29.88,SSW,208,2.0,6.0,76,0.00,,,0.00,0,Wunderground v.1.15,2013-10-18 09:36:00,
2013-10-18 04:37:00,47.8,40.6,29.88,SSW,208,2.0,6.0,76,0.00,,,0.00,0,Wunderground v.1.15,2013-10-18 09:37:00,
2013-10-18 04:39:00,47.8,40.6,29.88,SSW,208,2.0,6.0,76,0.00,,,0.00,0,Wunderground v.1.15,2013-10-18 09:39:00,
2013-10-18 04:40:00,47.8,40.9,29.88,SSW,194,5.0,5.0,77,0.00,,,0.00,0,Wunderground v.1.15,2013-10-18 09:40:00,
2013-10-18 04:41:00,47.8,40.6,29.88,SSW,198,6.0,7.0,76,0.00,,,0.00,0,Wunderground v.1.15,2013-10-18 09:41:00,
2013-10-18 04:42:00,47.8,40.6,29.88,SSW,198,5.0,7.0,76,0.00,,,0.00,0,Wunderground v.1.15,2013-10-18 09:42:00,
2013-10-18 04:44:00,47.8,40.6,29.88,SSW,205,2.0,7.0,76,0.00,,,0.00,0,Wunderground v.1.15,2013-10-18 09:44:00,
2013-10-18 04:45:00,47.8,40.6,29.88,SSW,204,5.0,7.0,76,0.00,,,0.00,0,Wunderground v.1.15,2013-10-18 09:45:00,
2013-10-18 04:46:00,47.8,40.3,29.88,SSW,204,2.0,7.0,75,0.00,,,0.00,0,Wunderground v.1.15,2013-10-18 09:46:00,
2013-10-18 04:47:00,47.8,40.3,29.88,SSW,204,3.0,7.0,75,0.00,,,0.00,0,Wunderground v.1.15,2013-10-18 09:47:00,
2013-10-18 04:48:00,47.8,40.3,29.88,SSW,205,5.0,7.0,75,0.00,,,0.00,0,Wunderground v.1.15,2013-10-18 09:48:00,
2013-10-18 04:49:00,47.8,40.3,29.88,SSW,205,3.0,4.0,75,0.00,,,0.00,0,Wunderground v.1.15,2013-10-18 09:49:00,
2013-10-18 04:50:00,47.8,40.3,29.88,SSW,205,3.0,4.0,75,0.00,,,0.00,0,Wunderground v.1.15,2013-10-18 09:50:00,
2013-10-18 04:52:00,47.8,40.3,29.88,SW,215,4.0,6.0,75,0.00,,,0.00,0,Wunderground v.1.15,2013-10-18 09:52:00,
2013-10-18 04:53:00,47.8,39.9,29.88,SSW,207,5.0,6.0,74,0.00,,,0.00,0,Wunderground v.1.15,2013-10-18 09:53:00,
2013-10-18 04:55:00,47.8,40.3,29.88,SSW,209,4.0,6.0,75,0.00,,,0.00,0,Wunderground v.1.15,2013-10-18 09:55:00,
2013-10-18 04:58:00,47.7,39.8,29.88,SSW,210,4.0,6.0,74,0.00,,,0.00,0,Wunderground v.1.15,2013-10-18 09:58:00,
2013-10-18 05:00:00,47.7,39.8,29.88,SW,224,5.0,5.0,74,0.00,,,0.00,0,Wunderground v.1.15,2013-10-18 10:00:00,
2013-10-18 05:03:00,47.6,39.7,29.88,SSW,209,6.0,9.0,74,0.00,,,0.00,0,Wunderground v.1.15,2013-10-18 10:03:00,
2013-10-18 05:04:00,47.6,39.7,29.88,SSW,213,5.0,9.0,74,0.00,,,0.00,0,Wunderground v.1.15,2013-10-18 10:04:00,
2013-10-18 05:05:00,47.6,40.1,29.88,SW,217,4.0,9.0,75,0.00,,,0.00,0,Wunderground v.1.15,2013-10-18 10:05:00,
2013-10-18 05:08:00,47.5,40.0,29.88,SW,217,3.0,9.0,75,0.00,,,0.00,0,Wunderground v.1.15,2013-10-18 10:08:00,
2013-10-18 05:09:00,47.4,39.9,29.88,SW,217,4.0,9.0,75,0.00,,,0.00,0,Wunderground v.1.15,2013-10-18 10:09:00,
2013-10-18 05:10:00,47.4,39.9,29.88,SW,217,4.0,5.0,75,0.00,,,0.00,0,Wunderground v.1.15,2013-10-18 10:10:00,
2013-10-18 05:11:00,47.4,39.9,29.88,SW,215,1.0,7.0,75,0.00,,,0.00,0,Wunderground v.1.15,2013-10-18 10:11:00,
2013-10-18 05:13:00,47.3,39.8,29.88,SW,215,4.0,7.0,75,0.00,,,0.00,0,Wunderground v.1.15,2013-10-18 10:13:00,
2013-10-18 05:14:00,47.3,39.8,29.88,SW,215,2.0,7.0,75,0.00,,,0.00,0,Wunderground v.1.15,2013-10-18 10:14:00,
2013-10-18 05:15:00,47.3,40.1,29.88,SW,215,4.0,7.0,76,0.00,,,0.00,0,Wunderground v.1.15,2013-10-18 10:15:00,
2013-10-18 05:16:00,47.2,40.0,29.88,SW,215,2.0,7.0,76,0.00,,,0.00,0,Wunderground v.1.15,2013-10-18 10:16:00,
2013-10-18 05:18:00,47.2,40.4,29.88,SW,215,3.0,7.0,77,0.00,,,0.00,0,Wunderground v.1.15,2013-10-18 10:18:00,
2013-10-18 05:19:00,47.1,39.9,29.88,SW,215,0.0,7.0,76,0.00,,,0.00,0,Wunderground v.1.15,2013-10-18 10:19:00,
2013-10-18 05:21:00,47.0,40.2,29.88,SW,215,3.0,3.0,77,0.00,,,0.00,0,Wunderground v.1.15,2013-10-18 10:21:00,
2013-10-18 05:22:00,47.0,40.2,29.88,SW,215,4.0,6.0,77,0.00,,,0.00,0,Wunderground v.1.15,2013-10-18 10:22:00,
2013-10-18 05:24:00,46.9,40.4,29.88,SW,215,1.0,6.0,78,0.00,,,0.00,0,Wunderground v.1.15,2013-10-18 10:24:00,
2013-10-18 05:26:00,46.9,40.4,29.88,SW,217,5.0,6.0,78,0.00,,,0.00,0,Wunderground v.1.15,2013-10-18 10:26:00,
2013-10-18 05:27:00,46.8,40.3,29.89,SW,217,2.0,6.0,78,0.00,,,0.01,0,Wunderground v.1.15,2013-10-18 10:27:00,
2013-10-18 05:29:00,46.7,40.9,29.89,SW,217,2.0,6.0,80,0.00,,,0.01,0,Wunderground v.1.15,2013-10-18 10:29:00,
2013-10-18 05:30:00,46.6,40.8,29.89,SW,217,1.0,3.0,80,0.00,,,0.01,0,Wunderground v.1.15,2013-10-18 10:30:00,
2013-10-18 05:31:00,46.5,40.7,29.89,SW,217,5.0,5.0,80,0.00,,,0.01,0,Wunderground v.1.15,2013-10-18 10:31:00,
2013-10-18 05:32:00,46.4,40.6,29.88,SW,216,2.0,6.0,80,0.00,,,0.01,0,Wunderground v.1.15,2013-10-18 10:32:00,
2013-10-18 05:33:00,46.3,40.5,29.88,SW,216,5.0,7.0,80,0.00,,,0.01,0,Wunderground v.1.15,2013-10-18 10:33:00,
2013-10-18 05:34:00,46.3,40.5,29.88,SW,218,3.0,7.0,80,0.00,,,0.01,0,Wunderground v.1.15,2013-10-18 10:34:00,
2013-10-18 05:35:00,46.2,40.4,29.88,SW,218,2.0,7.0,80,0.00,,,0.01,0,Wunderground v.1.15,2013-10-18 10:35:00,
2013-10-18 05:36:00,46.1,40.6,29.88,SW,218,4.0,7.0,81,0.00,,,0.01,0,Wunderground v.1.15,2013-10-18 10:36:00,
2013-10-18 05:37:00,46.1,40.6,29.88,SW,218,3.0,7.0,81,0.00,,,0.01,0,Wunderground v.1.15,2013-10-18 10:37:00,
2013-10-18 05:39:00,46.0,40.5,29.88,SW,218,3.0,7.0,81,0.00,,,0.01,0,Wunderground v.1.15,2013-10-18 10:39:00,
2013-10-18 05:40:00,45.9,40.7,29.88,SW,218,1.0,4.0,82,0.00,,,0.01,0,Wunderground v.1.15,2013-10-18 10:40:00,
2013-10-18 05:41:00,45.9,40.7,29.88,SW,219,4.0,6.0,82,0.00,,,0.01,0,Wunderground v.1.15,2013-10-18 10:41:00,
2013-10-18 05:42:00,45.8,40.6,29.88,SW,219,3.0,6.0,82,0.00,,,0.01,0,Wunderground v.1.15,2013-10-18 10:42:00,
2013-10-18 05:44:00,45.7,40.5,29.88,SW,219,2.0,6.0,82,0.00,,,0.01,0,Wunderground v.1.15,2013-10-18 10:44:00,
2013-10-18 05:45:00,45.6,40.4,29.88,SW,219,2.0,6.0,82,0.00,,,0.01,0,Wunderground v.1.15,2013-10-18 10:45:00,
2013-10-18 05:46:00,45.6,40.7,29.88,SW,219,3.0,6.0,83,0.00,,,0.01,0,Wunderground v.1.15,2013-10-18 10:46:00,
2013-10-18 05:48:00,45.5,40.6,29.88,SW,219,3.0,6.0,83,0.00,,,0.01,0,Wunderground v.1.15,2013-10-18 10:48:00,
2013-10-18 05:50:00,45.4,40.5,29.89,SSW,209,7.0,7.0,83,0.00,,,0.01,0,Wunderground v.1.15,2013-10-18 10:50:00,
2013-10-18 05:52:00,45.4,40.5,29.88,SSW,210,3.0,7.0,83,0.00,,,0.01,0,Wunderground v.1.15,2013-10-18 10:52:00,
2013-10-18 05:53:00,45.2,40.7,29.89,SSW,211,3.0,7.0,84,0.00,,,0.01,0,Wunderground v.1.15,2013-10-18 10:53:00,
2013-10-18 05:55:00,45.2,40.7,29.88,SSW,211,4.0,7.0,84,0.00,,,0.01,0,Wunderground v.1.15,2013-10-18 10:55:00,
2013-10-18 05:57:00,45.1,40.6,29.88,SW,215,2.0,7.0,84,0.00,,,0.01,0,Wunderground v.1.15,2013-10-18 10:57:00,
2013-10-18 05:59:00,45.0,40.5,29.88,SW,215,1.0,7.0,84,0.00,,,0.01,0,Wunderground v.1.15,2013-10-18 10:59:00,
2013-10-18 06:00:00,45.0,40.5,29.88,SW,215,0.0,3.0,84,0.00,,,0.01,0,Wunderground v.1.15,2013-10-18 11:00:00,
2013-10-18 06:01:00,44.9,40.4,29.88,SW,215,1.0,4.0,84,0.00,,,0.01,0,Wunderground v.1.15,2013-10-18 11:01:00,
2013-10-18 06:02:00,44.9,40.4,29.88,SW,215,1.0,4.0,84,0.00,,,0.01,0,Wunderground v.1.15,2013-10-18 11:02:00,
2013-10-18 06:04:00,44.8,40.6,29.88,SW,215,2.0,4.0,85,0.00,,,0.01,0,Wunderground v.1.15,2013-10-18 11:04:00,
2013-10-18 06:05:00,44.7,40.5,29.88,SW,215,3.0,4.0,85,0.00,,,0.01,0,Wunderground v.1.15,2013-10-18 11:05:00,
2013-10-18 06:06:00,44.7,40.5,29.88,SW,215,0.0,4.0,85,0.00,,,0.01,0,Wunderground v.1.15,2013-10-18 11:06:00,
2013-10-18 06:07:00,44.6,40.4,29.88,SW,215,0.0,4.0,85,0.00,,,0.01,0,Wunderground v.1.15,2013-10-18 11:07:00,
2013-10-18 06:10:00,44.5,40.3,29.88,SW,215,3.0,3.0,85,0.00,,,0.01,0,Wunderground v.1.15,2013-10-18 11:10:00,
2013-10-18 06:11:00,44.4,40.2,29.88,SW,215,1.0,3.0,85,0.00,,,0.01,0,Wunderground v.1.15,2013-10-18 11:11:00,
2013-10-18 06:12:00,44.3,40.1,29.89,SW,215,1.0,3.0,85,0.00,,,0.01,0,Wunderground v.1.15,2013-10-18 11:12:00,
2013-10-18 06:13:00,44.3,40.1,29.89,SW,215,0.0,3.0,85,0.00,,,0.01,0,Wunderground v.1.15,2013-10-18 11:13:00,
2013-10-18 06:15:00,44.2,40.0,29.89,SSW,207,3.0,4.0,85,0.00,,,0.01,0,Wunderground v.1.15,2013-10-18 11:15:00,
2013-10-18 06:16:00,44.1,39.9,29.89,SSW,207,2.0,4.0,85,0.00,,,0.01,0,Wunderground v.1.15,2013-10-18 11:16:00,
2013-10-18 06:17:00,44.0,39.8,29.89,SSW,207,2.0,4.0,85,0.00,,,0.01,0,Wunderground v.1.15,2013-10-18 11:17:00,
2013-10-18 06:18:00,44.0,39.8,29.89,SSW,207,2.0,4.0,85,0.00,,,0.01,0,Wunderground v.1.15,2013-10-18 11:18:00,
2013-10-18 06:21:00,43.8,39.9,29.89,SSW,207,2.0,3.0,86,0.00,,,0.01,0,Wunderground v.1.15,2013-10-18 11:21:00,
2013-10-18 06:22:00,43.7,39.8,29.89,SSW,207,1.0,4.0,86,0.00,,,0.01,0,Wunderground v.1.15,2013-10-18 11:22:00,
2013-10-18 06:23:00,43.7,39.8,29.89,SSW,207,3.0,4.0,86,0.00,,,0.01,0,Wunderground v.1.15,2013-10-18 11:23:00,
2013-10-18 06:26:00,43.5,39.9,29.89,SSW,207,1.0,4.0,87,0.00,,,0.01,0,Wunderground v.1.15,2013-10-18 11:26:00,
2013-10-18 06:27:00,43.5,39.9,29.89,SSW,207,1.0,4.0,87,0.00,,,0.01,0,Wunderground v.1.15,2013-10-18 11:27:00,
2013-10-18 06:28:00,43.5,39.9,29.89,SSW,207,1.0,4.0,87,0.00,,,0.01,0,Wunderground v.1.15,2013-10-18 11:28:00,
2013-10-18 06:31:00,43.3,39.7,29.89,SSW,207,0.0,3.0,87,0.00,,,0.01,0,Wunderground v.1.15,2013-10-18 11:31:00,
2013-10-18 06:32:00,43.2,39.6,29.89,SSW,207,2.0,4.0,87,0.00,,,0.01,0,Wunderground v.1.15,2013-10-18 11:32:00,
2013-10-18 06:33:00,43.2,39.6,29.89,SSW,207,3.0,4.0,87,0.00,,,0.01,0,Wunderground v.1.15,2013-10-18 11:33:00,
2013-10-18 06:34:00,43.1,39.5,29.89,SSW,207,1.0,4.0,87,0.00,,,0.01,0,Wunderground v.1.15,2013-10-18 11:34:00,
2013-10-18 06:36:00,43.1,39.5,29.89,SSW,207,1.0,4.0,87,0.00,,,0.01,0,Wunderground v.1.15,2013-10-18 11:36:00,
2013-10-18 06:37:00,43.0,39.4,29.89,SSW,207,2.0,4.0,87,0.00,,,0.01,0,Wunderground v.1.15,2013-10-18 11:37:00,
2013-10-18 06:38:00,43.0,39.4,29.90,SSW,207,0.0,4.0,87,0.00,,,0.01,0,Wunderground v.1.15,2013-10-18 11:38:00,
2013-10-18 06:39:00,42.9,39.3,29.89,SSW,207,1.0,1.0,87,0.00,,,0.01,0,Wunderground v.1.15,2013-10-18 11:39:00,
2013-10-18 06:41:00,42.8,39.5,29.90,SSW,207,0.0,3.0,88,0.00,,,0.01,0,Wunderground v.1.15,2013-10-18 11:41:00,
2013-10-18 06:42:00,42.8,39.5,29.90,SSW,207,2.0,3.0,88,0.00,,,0.01,0,Wunderground v.1.15,2013-10-18 11:42:00,
2013-10-18 06:44:00,42.8,39.5,29.90,SSW,207,2.0,3.0,88,0.00,,,0.01,0,Wunderground v.1.15,2013-10-18 11:44:00,
2013-10-18 06:46:00,42.7,39.4,29.90,SSW,207,0.0,4.0,88,0.00,,,0.01,0,Wunderground v.1.15,2013-10-18 11:46:00,
2013-10-18 06:47:00,42.7,39.4,29.90,SSW,207,0.0,4.0,88,0.00,,,0.01,0,Wunderground v.1.15,2013-10-18 11:47:00,
2013-10-18 06:49:00,42.6,39.3,29.90,SSW,207,2.0,4.0,88,0.00,,,0.01,0,Wunderground v.1.15,2013-10-18 11:49:00,
2013-10-18 06:50:00,42.6,39.3,29.90,SSW,207,2.0,3.0,88,0.00,,,0.01,0,Wunderground v.1.15,2013-10-18 11:50:00,
2013-10-18 06:51:00,42.5,39.5,29.90,SSW,207,0.0,3.0,89,0.00,,,0.01,0,Wunderground v.1.15,2013-10-18 11:51:00,
2013-10-18 06:52:00,42.5,39.5,29.90,SSW,207,1.0,3.0,89,0.00,,,0.01,0,Wunderground v.1.15,2013-10-18 11:52:00,
2013-10-18 06:54:00,42.5,39.5,29.90,SSW,207,3.0,3.0,89,0.00,,,0.01,0,Wunderground v.1.15,2013-10-18 11:54:00,
2013-10-18 06:55:00,42.5,39.5,29.90,SSW,207,0.0,3.0,89,0.00,,,0.01,0,Wunderground v.1.15,2013-10-18 11:55:00,
2013-10-18 06:56:00,42.4,39.4,29.90,SSW,207,2.0,4.0,89,0.00,,,0.01,0,Wunderground v.1.15,2013-10-18 11:56:00,
2013-10-18 06:57:00,42.5,39.5,29.90,SSW,207,1.0,4.0,89,0.00,,,0.01,0,Wunderground v.1.15,2013-10-18 11:57:00,
2013-10-18 06:59:00,42.4,39.4,29.90,SSW,207,2.0,4.0,89,0.00,,,0.01,0,Wunderground v.1.15,2013-10-18 11:59:00,
2013-10-18 07:00:00,42.4,39.4,29.90,SSW,207,2.0,2.0,89,0.00,,,0.01,0,Wunderground v.1.15,2013-10-18 12:00:00,
2013-10-18 07:01:00,42.4,39.4,29.90,SSW,207,1.0,2.0,89,0.00,,,0.01,0,Wunderground v.1.15,2013-10-18 12:01:00,
2013-10-18 07:02:00,42.4,39.4,29.90,SSW,207,1.0,3.0,89,0.00,,,0.01,0,Wunderground v.1.15,2013-10-18 12:02:00,
2013-10-18 07:04:00,42.4,39.4,29.90,SSW,207,0.0,3.0,89,0.00,,,0.01,0,Wunderground v.1.15,2013-10-18 12:04:00,
2013-10-18 07:05:00,42.4,39.4,29.90,SSW,207,0.0,3.0,89,0.00,,,0.01,0,Wunderground v.1.15,2013-10-18 12:05:00,
2013-10-18 07:07:00,42.4,39.4,29.90,SSW,207,0.0,3.0,89,0.00,,,0.01,0,Wunderground v.1.15,2013-10-18 12:07:00,
2013-10-18 07:08:00,42.4,39.4,29.90,SSW,207,2.0,4.0,89,0.00,,,0.01,0,Wunderground v.1.15,2013-10-18 12:08:00,
2013-10-18 07:09:00,42.4,39.7,29.90,SSW,207,3.0,3.0,90,0.00,,,0.01,0,Wunderground v.1.15,2013-10-18 12:09:00,
2013-10-18 07:10:00,42.4,39.4,29.90,SSW,207,1.0,3.0,89,0.00,,,0.01,0,Wunderground v.1.15,2013-10-18 12:10:00,
2013-10-18 07:11:00,42.3,39.3,29.90,SSW,207,3.0,5.0,89,0.00,,,0.01,0,Wunderground v.1.15,2013-10-18 12:11:00,
2013-10-18 07:12:00,42.3,39.3,29.90,SSW,207,3.0,5.0,89,0.00,,,0.01,0,Wunderground v.1.15,2013-10-18 12:12:00,
2013-10-18 07:13:00,42.3,39.3,29.90,SSW,207,3.0,5.0,89,0.00,,,0.01,0,Wunderground v.1.15,2013-10-18 12:13:00,
2013-10-18 07:14:00,42.3,39.3,29.90,SSW,207,3.0,5.0,89,0.00,,,0.01,0,Wunderground v.1.15,2013-10-18 12:14:00,
2013-10-18 07:16:00,42.3,39.6,29.90,SSW,207,2.0,5.0,90,0.00,,,0.01,0,Wunderground v.1.15,2013-10-18 12:16:00,
2013-10-18 07:17:00,42.3,39.6,29.91,SSW,207,4.0,5.0,90,0.00,,,0.01,5,Wunderground v.1.15,2013-10-18 12:17:00,
2013-10-18 07:18:00,42.3,39.6,29.91,SSW,207,4.0,5.0,90,0.00,,,0.01,5,Wunderground v.1.15,2013-10-18 12:18:00,
2013-10-18 07:19:00,42.3,39.6,29.91,SSW,207,0.0,5.0,90,0.00,,,0.01,5,Wunderground v.1.15,2013-10-18 12:19:00,
2013-10-18 07:21:00,42.3,39.6,29.91,SSW,207,2.0,4.0,90,0.00,,,0.01,5,Wunderground v.1.15,2013-10-18 12:21:00,
2013-10-18 07:22:00,42.3,39.6,29.91,SSW,207,2.0,4.0,90,0.00,,,0.01,5,Wunderground v.1.15,2013-10-18 12:22:00,
2013-10-18 07:23:00,42.4,39.7,29.91,SSW,207,0.0,4.0,90,0.00,,,0.01,7,Wunderground v.1.15,2013-10-18 12:23:00,
2013-10-18 07:24:00,42.4,39.7,29.91,SSW,207,1.0,4.0,90,0.00,,,0.01,7,Wunderground v.1.15,2013-10-18 12:24:00,
2013-10-18 07:26:00,42.4,39.7,29.91,SSW,208,2.0,4.0,90,0.00,,,0.01,9,Wunderground v.1.15,2013-10-18 12:26:00,
2013-10-18 07:27:00,42.4,39.7,29.91,SSW,208,0.0,4.0,90,0.00,,,0.01,9,Wunderground v.1.15,2013-10-18 12:27:00,
2013-10-18 07:28:00,42.4,39.7,29.90,SSW,209,1.0,4.0,90,0.00,,,0.01,9,Wunderground v.1.15,2013-10-18 12:28:00,
2013-10-18 07:29:00,42.5,39.8,29.90,SSW,209,1.0,4.0,90,0.00,,,0.01,11,Wunderground v.1.15,2013-10-18 12:29:00,
2013-10-18 07:31:00,42.5,39.8,29.91,SSW,210,4.0,5.0,90,0.00,,,0.01,11,Wunderground v.1.15,2013-10-18 12:31:00,
2013-10-18 07:32:00,42.5,39.8,29.90,SSW,211,4.0,5.0,90,0.00,,,0.01,11,Wunderground v.1.15,2013-10-18 12:32:00,
2013-10-18 07:33:00,42.5,39.8,29.90,SSW,211,0.0,5.0,90,0.00,,,0.01,12,Wunderground v.1.15,2013-10-18 12:33:00,
2013-10-18 07:35:00,42.5,39.8,29.90,SSW,211,1.0,5.0,90,0.00,,,0.01,14,Wunderground v.1.15,2013-10-18 12:35:00,
2013-10-18 07:36:00,42.5,39.8,29.90,SW,217,5.0,5.0,90,0.00,,,0.01,16,Wunderground v.1.15,2013-10-18 12:36:00,
2013-10-18 07:38:00,42.5,39.8,29.91,SW,216,3.0,5.0,90,0.00,,,0.01,18,Wunderground v.1.15,2013-10-18 12:38:00,
2013-10-18 07:39:00,42.5,39.8,29.91,SW,216,3.0,5.0,90,0.00,,,0.01,19,Wunderground v.1.15,2013-10-18 12:39:00,
2013-10-18 07:41:00,42.6,39.9,29.91,SW,217,3.0,5.0,90,0.00,,,0.01,25,Wunderground v.1.15,2013-10-18 12:41:00,
2013-10-18 07:42:00,42.6,39.9,29.91,SW,221,7.0,7.0,90,0.00,,,0.01,25,Wunderground v.1.15,2013-10-18 12:42:00,
2013-10-18 07:43:00,42.6,39.9,29.91,SSW,207,3.0,7.0,90,0.00,,,0.01,26,Wunderground v.1.15,2013-10-18 12:43:00,
2013-10-18 07:45:00,42.6,40.2,29.91,SSW,211,4.0,7.0,91,0.00,,,0.01,26,Wunderground v.1.15,2013-10-18 12:45:00,
2013-10-18 07:47:00,42.7,40.3,29.91,SSW,209,2.0,7.0,91,0.00,,,0.01,30,Wunderground v.1.15,2013-10-18 12:47:00,
2013-10-18 07:48:00,42.7,40.3,29.91,SW,215,2.0,7.0,91,0.00,,,0.01,32,Wunderground v.1.15,2013-10-18 12:48:00,
2013-10-18 07:50:00,42.8,40.4,29.91,SW,217,3.0,3.0,91,0.00,,,0.01,32,Wunderground v.1.15,2013-10-18 12:50:00,
2013-10-18 07:52:00,42.8,40.4,29.91,SW,217,0.0,3.0,91,0.00,,,0.01,39,Wunderground v.1.15,2013-10-18 12:52:00,
2013-10-18 07:53:00,42.9,40.5,29.91,SW,214,4.0,6.0,91,0.00,,,0.01,40,Wunderground v.1.15,2013-10-18 12:53:00,
2013-10-18 07:54:00,42.9,40.5,29.91,SW,219,6.0,6.0,91,0.00,,,0.01,40,Wunderground v.1.15,2013-10-18 12:54:00,
2013-10-18 07:55:00,42.9,40.5,29.91,SSW,211,3.0,7.0,91,0.00,,,0.01,35,Wunderground v.1.15,2013-10-18 12:55:00,
2013-10-18 07:57:00,43.0,40.6,29.91,SSW,211,2.0,7.0,91,0.00,,,0.01,32,Wunderground v.1.15,2013-10-18 12:57:00,
2013-10-18 07:58:00,43.1,40.7,29.91,SSW,211,5.0,7.0,91,0.00,,,0.01,32,Wunderground v.1.15,2013-10-18 12:58:00,
2013-10-18 07:59:00,43.1,40.7,29.91,SSW,211,0.0,7.0,91,0.00,,,0.01,32,Wunderground v.1.15,2013-10-18 12:59:00,
2013-10-18 08:01:00,43.2,40.8,29.91,SSW,211,2.0,3.0,91,0.00,,,0.01,37,Wunderground v.1.15,2013-10-18 13:01:00,
2013-10-18 08:02:00,43.2,40.8,29.91,SSW,211,2.0,3.0,91,0.00,,,0.01,40,Wunderground v.1.15,2013-10-18 13:02:00,
2013-10-18 08:03:00,43.2,40.8,29.91,SSW,211,1.0,3.0,91,0.00,,,0.01,40,Wunderground v.1.15,2013-10-18 13:03:00,
2013-10-18 08:04:00,43.3,40.8,29.91,SW,221,2.0,6.0,91,0.00,,,0.01,44,Wunderground v.1.15,2013-10-18 13:04:00,
2013-10-18 08:05:00,43.3,40.8,29.91,SW,221,1.0,6.0,91,0.00,,,0.01,47,Wunderground v.1.15,2013-10-18 13:05:00,
2013-10-18 08:06:00,43.4,40.9,29.91,SW,220,4.0,6.0,91,0.00,,,0.01,56,Wunderground v.1.15,2013-10-18 13:06:00,
2013-10-18 08:07:00,43.4,40.9,29.91,SW,223,5.0,7.0,91,0.00,,,0.01,91,Wunderground v.1.15,2013-10-18 13:07:00,
2013-10-18 08:08:00,43.4,40.9,29.91,SSW,194,5.0,7.0,91,0.00,,,0.01,84,Wunderground v.1.15,2013-10-18 13:08:00,
2013-10-18 08:09:00,43.5,41.0,29.91,SSW,194,1.0,7.0,91,0.00,,,0.01,84,Wunderground v.1.15,2013-10-18 13:09:00,
2013-10-18 08:10:00,43.6,41.1,29.92,SW,234,5.0,7.0,91,0.00,,,0.01,120,Wunderground v.1.15,2013-10-18 13:10:00,
2013-10-18 08:11:00,43.7,41.2,29.92,SW,221,3.0,7.0,91,0.00,,,0.01,116,Wunderground v.1.15,2013-10-18 13:11:00,
2013-10-18 08:13:00,43.8,41.6,29.92,SW,219,5.0,9.0,92,0.00,,,0.01,84,Wunderground v.1.15,2013-10-18 13:13:00,
2013-10-18 08:14:00,43.9,41.7,29.92,SW,217,4.0,9.0,92,0.00,,,0.01,69,Wunderground v.1.15,2013-10-18 13:14:00,
2013-10-18 08:15:00,44.0,41.8,29.92,SW,221,4.0,9.0,92,0.00,,,0.01,51,Wunderground v.1.15,2013-10-18 13:15:00,
2013-10-18 08:16:00,44.1,41.9,29.91,SW,223,7.0,9.0,92,0.00,,,0.01,51,Wunderground v.1.15,2013-10-18 13:16:00,
2013-10-18 08:18:00,44.3,42.1,29.92,SW,222,3.0,11.0,92,0.00,,,0.01,63,Wunderground v.1.15,2013-10-18 13:18:00,
2013-10-18 08:19:00,44.4,42.2,29.92,SW,223,4.0,11.0,92,0.00,,,0.01,63,Wunderground v.1.15,2013-10-18 13:19:00,
2013-10-18 08:20:00,44.5,42.3,29.92,SW,223,4.0,6.0,92,0.00,,,0.01,65,Wunderground v.1.15,2013-10-18 13:20:00,
2013-10-18 08:21:00,44.5,42.0,29.92,SW,227,6.0,8.0,91,0.00,,,0.01,65,Wunderground v.1.15,2013-10-18 13:21:00,
2013-10-18 08:23:00,44.7,42.2,29.92,SW,221,6.0,8.0,91,0.00,,,0.01,63,Wunderground v.1.15,2013-10-18 13:23:00,
2013-10-18 08:24:00,44.7,42.2,29.92,SW,224,6.0,8.0,91,0.00,,,0.01,63,Wunderground v.1.15,2013-10-18 13:24:00,
2013-10-18 08:25:00,44.8,42.3,29.92,SSW,205,6.0,8.0,91,0.00,,,0.01,65,Wunderground v.1.15,2013-10-18 13:25:00,
2013-10-18 08:26:00,44.9,42.4,29.92,SW,219,7.0,9.0,91,0.00,,,0.01,65,Wunderground v.1.15,2013-10-18 13:26:00,
2013-10-18 08:27:00,44.9,42.4,29.92,SW,227,6.0,9.0,91,0.00,,,0.01,65,Wunderground v.1.15,2013-10-18 13:27:00,
2013-10-18 08:29:00,45.0,42.5,29.92,SW,232,6.0,11.0,91,0.00,,,0.01,67,Wunderground v.1.15,2013-10-18 13:29:00,
2013-10-18 08:31:00,45.1,42.6,29.92,SW,219,5.0,8.0,91,0.00,,,0.01,70,Wunderground v.1.15,2013-10-18 13:31:00,
2013-10-18 08:32:00,45.2,42.7,29.92,SW,232,5.0,8.0,91,0.00,,,0.01,70,Wunderground v.1.15,2013-10-18 13:32:00,
2013-10-18 08:34:00,45.3,42.8,29.92,SW,234,5.0,8.0,91,0.00,,,0.01,69,Wunderground v.1.15,2013-10-18 13:34:00,
2013-10-18 08:36:00,45.4,42.9,29.92,SW,225,6.0,10.0,91,0.00,,,0.01,74,Wunderground v.1.15,2013-10-18 13:36:00,
2013-10-18 08:37:00,45.4,42.9,29.92,SW,236,4.0,10.0,91,0.00,,,0.01,74,Wunderground v.1.15,2013-10-18 13:37:00,
2013-10-18 08:39:00,45.5,42.7,29.92,SW,229,10.0,10.0,90,0.00,,,0.01,84,Wunderground v.1.15,2013-10-18 13:39:00,
2013-10-18 08:41:00,45.6,42.8,29.92,SSW,195,7.0,10.0,90,0.00,,,0.01,93,Wunderground v.1.15,2013-10-18 13:41:00,
2013-10-18 08:42:00,45.6,42.8,29.92,SSW,193,10.0,10.0,90,0.00,,,0.01,90,Wunderground v.1.15,2013-10-18 13:42:00,
2013-10-18 08:44:00,45.7,42.9,29.92,SW,221,4.0,10.0,90,0.00,,,0.01,95,Wunderground v.1.15,2013-10-18 13:44:00,
2013-10-18 08:45:00,45.7,42.9,29.92,SW,221,8.0,10.0,90,0.00,,,0.01,95,Wunderground v.1.15,2013-10-18 13:45:00,
2013-10-18 08:47:00,45.7,42.9,29.92,SW,224,6.0,10.0,90,0.00,,,0.01,111,Wunderground v.1.15,2013-10-18 13:47:00,
2013-10-18 08:49:00,45.8,43.0,29.92,SSW,197,10.0,10.0,90,0.00,,,0.01,116,Wunderground v.1.15,2013-10-18 13:49:00,
2013-10-18 08:50:00,45.8,43.0,29.92,SSW,192,8.0,10.0,90,0.00,,,0.01,116,Wunderground v.1.15,2013-10-18 13:50:00,
2013-10-18 08:53:00,45.8,43.0,29.92,SW,225,8.0,14.0,90,0.00,,,0.01,130,Wunderground v.1.15,2013-10-18 13:53:00,
2013-10-18 08:54:00,45.8,43.0,29.92,SW,217,8.0,14.0,90,0.00,,,0.01,144,Wunderground v.1.15,2013-10-18 13:54:00,
2013-10-18 08:55:00,45.8,43.0,29.92,WSW,242,6.0,14.0,90,0.00,,,0.01,144,Wunderground v.1.15,2013-10-18 13:55:00,
2013-10-18 08:58:00,45.9,43.1,29.92,SW,217,10.0,14.0,90,0.00,,,0.01,197,Wunderground v.1.15,2013-10-18 13:58:00,
2013-10-18 08:59:00,45.9,43.1,29.92,SW,226,6.0,14.0,90,0.00,,,0.01,197,Wunderground v.1.15,2013-10-18 13:59:00,
2013-10-18 09:00:00,46.0,43.2,29.92,SW,219,5.0,9.0,90,0.00,,,0.01,204,Wunderground v.1.15,2013-10-18 14:00:00,
2013-10-18 09:03:00,46.2,43.4,29.92,SW,222,5.0,11.0,90,0.00,,,0.01,165,Wunderground v.1.15,2013-10-18 14:03:00,
2013-10-18 09:04:00,46.2,43.4,29.92,SW,217,8.0,11.0,90,0.00,,,0.01,165,Wunderground v.1.15,2013-10-18 14:04:00,
2013-10-18 09:06:00,46.3,43.5,29.93,SW,232,3.0,14.0,90,0.00,,,0.01,169,Wunderground v.1.15,2013-10-18 14:06:00,
2013-10-18 09:09:00,46.4,43.6,29.93,SW,229,6.0,14.0,90,0.00,,,0.01,160,Wunderground v.1.15,2013-10-18 14:09:00,
2013-10-18 09:10:00,46.5,43.7,29.92,SW,227,10.0,15.0,90,0.00,,,0.01,160,Wunderground v.1.15,2013-10-18 14:10:00,
2013-10-18 09:11:00,46.5,43.7,29.93,SW,217,11.0,15.0,90,0.00,,,0.01,141,Wunderground v.1.15,2013-10-18 14:11:00,
2013-10-18 09:14:00,46.5,43.7,29.93,SSW,201,4.0,15.0,90,0.00,,,0.01,134,Wunderground v.1.15,2013-10-18 14:14:00,
2013-10-18 09:15:00,46.6,43.8,29.92,SW,230,6.0,15.0,90,0.00,,,0.01,132,Wunderground v.1.15,2013-10-18 14:15:00,
2013-10-18 09:16:00,46.7,43.9,29.93,WSW,244,8.0,15.0,90,0.00,,,0.01,137,Wunderground v.1.15,2013-10-18 14:16:00,
2013-10-18 09:19:00,46.7,43.9,29.93,SW,229,10.0,15.0,90,0.00,,,0.01,155,Wunderground v.1.15,2013-10-18 14:19:00,
2013-10-18 09:20:00,46.8,44.0,29.93,SW,225,5.0,8.0,90,0.00,,,0.01,155,Wunderground v.1.15,2013-10-18 14:20:00,
2013-10-18 09:21:00,46.8,44.0,29.93,SW,225,10.0,10.0,90,0.00,,,0.01,158,Wunderground v.1.15,2013-10-18 14:21:00,
2013-10-18 09:22:00,46.8,44.0,29.93,WSW,238,13.0,13.0,90,0.00,,,0.01,158,Wunderground v.1.15,2013-10-18 14:22:00,
2013-10-18 09:24:00,46.8,43.7,29.93,SW,217,9.0,19.0,89,0.00,,,0.01,155,Wunderground v.1.15,2013-10-18 14:24:00,
2013-10-18 09:25:00,46.8,43.7,29.93,SW,223,5.0,19.0,89,0.00,,,0.01,148,Wunderground v.1.15,2013-10-18 14:25:00,
2013-10-18 09:26:00,46.9,43.8,29.93,SSW,208,6.0,19.0,89,0.00,,,0.01,146,Wunderground v.1.15,2013-10-18 14:26:00,
2013-10-18 09:27:00,46.9,44.1,29.93,WSW,252,7.0,19.0,90,0.00,,,0.01,148,Wunderground v.1.15,2013-10-18 14:27:00,
2013-10-18 09:29:00,47.0,44.2,29.93,SW,221,5.0,19.0,90,0.00,,,0.01,146,Wunderground v.1.15,2013-10-18 14:29:00,
2013-10-18 09:31:00,47.0,44.2,29.93,SW,219,8.0,8.0,90,0.00,,,0.01,139,Wunderground v.1.15,2013-10-18 14:31:00,
2013-10-18 09:33:00,47.0,43.9,29.93,SW,217,7.0,18.0,89,0.00,,,0.01,127,Wunderground v.1.15,2013-10-18 14:33:00,
2013-10-18 09:34:00,47.1,44.0,29.93,WSW,240,12.0,18.0,89,0.00,,,0.01,137,Wunderground v.1.15,2013-10-18 14:34:00,
2013-10-18 09:36:00,47.0,43.9,29.93,SSW,213,8.0,18.0,89,0.00,,,0.01,149,Wunderground v.1.15,2013-10-18 14:36:00,
2013-10-18 09:37:00,47.0,43.9,29.93,SW,228,11.0,18.0,89,0.00,,,0.01,139,Wunderground v.1.15,2013-10-18 14:37:00,
2013-10-18 09:38:00,47.0,43.9,29.93,SW,226,7.0,18.0,89,0.00,,,0.01,135,Wunderground v.1.15,2013-10-18 14:38:00,
2013-10-18 09:39:00,47.0,43.9,29.93,SW,234,8.0,18.0,89,0.00,,,0.01,128,Wunderground v.1.15,2013-10-18 14:39:00,
2013-10-18 09:41:00,47.0,43.9,29.93,SW,235,11.0,15.0,89,0.00,,,0.01,149,Wunderground v.1.15,2013-10-18 14:41:00,
2013-10-18 09:42:00,47.0,43.9,29.93,WSW,238,11.0,15.0,89,0.00,,,0.01,176,Wunderground v.1.15,2013-10-18 14:42:00,
2013-10-18 09:44:00,47.0,43.9,29.93,SW,227,12.0,15.0,89,0.00,,,0.01,251,Wunderground v.1.15,2013-10-18 14:44:00,
2013-10-18 09:45:00,47.1,44.0,29.93,SSW,211,7.0,15.0,89,0.00,,,0.01,260,Wunderground v.1.15,2013-10-18 14:45:00,
2013-10-18 09:46:00,47.1,44.0,29.93,SW,227,8.0,15.0,89,0.00,,,0.01,264,Wunderground v.1.15,2013-10-18 14:46:00,
2013-10-18 09:47:00,47.1,44.0,29.93,WSW,237,10.0,15.0,89,0.00,,,0.01,269,Wunderground v.1.15,2013-10-18 14:47:00,
2013-10-18 09:48:00,47.2,44.1,29.93,SSW,205,7.0,15.0,89,0.00,,,0.01,246,Wunderground v.1.15,2013-10-18 14:48:00,
2013-10-18 09:49:00,47.2,44.1,29.93,WSW,238,8.0,15.0,89,0.00,,,0.01,221,Wunderground v.1.15,2013-10-18 14:49:00,
2013-10-18 09:50:00,47.3,44.2,29.93,SW,223,7.0,11.0,89,0.00,,,0.01,181,Wunderground v.1.15,2013-10-18 14:50:00,
2013-10-18 09:51:00,47.3,44.2,29.93,SW,236,7.0,14.0,89,0.00,,,0.01,169,Wunderground v.1.15,2013-10-18 14:51:00,
2013-10-18 09:52:00,47.4,44.3,29.94,SW,217,7.0,14.0,89,0.00,,,0.01,153,Wunderground v.1.15,2013-10-18 14:52:00,
2013-10-18 09:53:00,47.4,44.3,29.94,SSW,207,11.0,14.0,89,0.00,,,0.01,130,Wunderground v.1.15,2013-10-18 14:53:00,
2013-10-18 09:54:00,47.5,44.4,29.94,SW,218,8.0,14.0,89,0.00,,,0.01,113,Wunderground v.1.15,2013-10-18 14:54:00,
2013-10-18 09:55:00,47.5,44.4,29.94,SW,232,10.0,14.0,89,0.00,,,0.01,107,Wunderground v.1.15,2013-10-18 14:55:00,
2013-10-18 09:57:00,47.6,44.5,29.94,WSW,242,11.0,16.0,89,0.00,,,0.01,91,Wunderground v.1.15,2013-10-18 14:57:00,
2013-10-18 09:58:00,47.6,44.5,29.94,SW,222,8.0,16.0,89,0.00,,,0.01,91,Wunderground v.1.15,2013-10-18 14:58:00,
2013-10-18 09:59:00,47.6,44.5,29.94,SW,225,7.0,16.0,89,0.00,,,0.01,91,Wunderground v.1.15,2013-10-18 14:59:00,
2013-10-18 10:00:00,47.7,44.6,29.94,SSW,202,7.0,13.0,89,0.00,,,0.01,109,Wunderground v.1.15,2013-10-18 15:00:00,
2013-10-18 10:03:00,47.8,44.7,29.94,WSW,250,10.0,13.0,89,0.00,,,0.01,81,Wunderground v.1.15,2013-10-18 15:03:00,
2013-10-18 10:04:00,47.8,44.7,29.94,SW,223,6.0,16.0,89,0.00,,,0.01,83,Wunderground v.1.15,2013-10-18 15:04:00,
2013-10-18 10:06:00,47.8,44.7,29.94,SW,221,11.0,16.0,89,0.00,,,0.01,77,Wunderground v.1.15,2013-10-18 15:06:00,
2013-10-18 10:07:00,47.9,44.8,29.94,SW,218,10.0,16.0,89,0.00,,,0.01,88,Wunderground v.1.15,2013-10-18 15:07:00,
2013-10-18 10:08:00,47.8,44.4,29.94,SW,227,7.0,16.0,88,0.00,,,0.01,97,Wunderground v.1.15,2013-10-18 15:08:00,
2013-10-18 10:09:00,47.8,44.4,29.94,SSW,199,8.0,16.0,88,0.00,,,0.01,111,Wunderground v.1.15,2013-10-18 15:09:00,
2013-10-18 10:10:00,47.8,44.4,29.94,West,266,8.0,8.0,88,0.00,,,0.01,90,Wunderground v.1.15,2013-10-18 15:10:00,
2013-10-18 10:11:00,47.9,44.5,29.94,SW,231,6.0,8.0,88,0.00,,,0.01,84,Wunderground v.1.15,2013-10-18 15:11:00,
2013-10-18 10:12:00,47.9,44.8,29.94,SW,232,8.0,12.0,89,0.00,,,0.01,91,Wunderground v.1.15,2013-10-18 15:12:00,
2013-10-18 10:13:00,47.9,44.5,29.94,WSW,246,18.0,18.0,88,0.00,,,0.01,125,Wunderground v.1.15,2013-10-18 15:13:00,
2013-10-18 10:14:00,47.9,44.5,29.94,West,264,14.0,18.0,88,0.00,,,0.01,163,Wunderground v.1.15,2013-10-18 15:14:00,
2013-10-18 10:15:00,47.9,44.5,29.94,WSW,250,15.0,18.0,88,0.00,,,0.01,192,Wunderground v.1.15,2013-10-18 15:15:00,
2013-10-18 10:17:00,47.9,44.5,29.94,WSW,249,8.0,18.0,88,0.00,,,0.01,199,Wunderground v.1.15,2013-10-18 15:17:00,
2013-10-18 10:18:00,48.0,44.9,29.94,WSW,237,8.0,18.0,89,0.00,,,0.01,163,Wunderground v.1.15,2013-10-18 15:18:00,
2013-10-18 10:19:00,48.0,44.9,29.94,WSW,252,2.0,18.0,89,0.00,,,0.01,137,Wunderground v.1.15,2013-10-18 15:19:00,
2013-10-18 10:20:00,48.0,44.6,29.94,SW,236,11.0,16.0,88,0.00,,,0.01,123,Wunderground v.1.15,2013-10-18 15:20:00,
2013-10-18 10:21:00,48.1,44.7,29.94,WSW,248,8.0,16.0,88,0.00,,,0.01,109,Wunderground v.1.15,2013-10-18 15:21:00,
2013-10-18 10:22:00,48.1,44.7,29.94,SW,229,8.0,16.0,88,0.00,,,0.01,104,Wunderground v.1.15,2013-10-18 15:22:00,
2013-10-18 10:23:00,48.1,44.7,29.94,SW,230,8.0,16.0,88,0.00,,,0.01,88,Wunderground v.1.15,2013-10-18 15:23:00,
2013-10-18 10:24:00,48.0,44.6,29.94,SW,221,5.0,16.0,88,0.00,,,0.01,79,Wunderground v.1.15,2013-10-18 15:24:00,
2013-10-18 10:25:00,48.0,44.6,29.94,SW,232,12.0,16.0,88,0.00,,,0.01,60,Wunderground v.1.15,2013-10-18 15:25:00,
2013-10-18 10:27:00,48.0,44.6,29.94,SW,228,6.0,16.0,88,0.00,,,0.01,53,Wunderground v.1.15,2013-10-18 15:27:00,
2013-10-18 10:28:00,48.0,44.6,29.94,WSW,241,10.0,16.0,88,0.00,,,0.01,62,Wunderground v.1.15,2013-10-18 15:28:00,
2013-10-18 10:29:00,48.0,44.9,29.94,WSW,252,6.0,8.0,89,0.00,,,0.01,58,Wunderground v.1.15,2013-10-18 15:29:00,
2013-10-18 10:30:00,47.9,44.8,29.94,SW,216,7.0,10.0,89,0.00,,,0.01,62,Wunderground v.1.15,2013-10-18 15:30:00,
2013-10-18 10:32:00,47.9,44.8,29.94,SW,234,7.0,11.0,89,0.00,,,0.01,79,Wunderground v.1.15,2013-10-18 15:32:00,
2013-10-18 10:33:00,47.9,44.8,29.94,SW,232,6.0,11.0,89,0.00,,,0.01,86,Wunderground v.1.15,2013-10-18 15:33:00,
2013-10-18 10:34:00,47.9,44.8,29.94,WSW,239,7.0,11.0,89,0.00,,,0.01,90,Wunderground v.1.15,2013-10-18 15:34:00,
2013-10-18 10:35:00,47.8,44.7,29.94,WSW,242,6.0,12.0,89,0.00,,,0.01,84,Wunderground v.1.15,2013-10-18 15:35:00,
2013-10-18 10:36:00,47.8,44.7,29.94,WSW,239,8.0,12.0,89,0.00,,,0.01,127,Wunderground v.1.15,2013-10-18 15:36:00,
2013-10-18 10:37:00,47.8,44.7,29.94,West,259,6.0,15.0,89,0.00,,,0.01,127,Wunderground v.1.15,2013-10-18 15:37:00,
2013-10-18 10:38:00,47.8,44.7,29.94,SSW,207,9.0,15.0,89,0.00,,,0.01,127,Wunderground v.1.15,2013-10-18 15:38:00,
2013-10-18 10:40:00,47.8,44.7,29.94,SW,232,10.0,10.0,89,0.00,,,0.01,128,Wunderground v.1.15,2013-10-18 15:40:00,
2013-10-18 10:41:00,47.7,44.6,29.94,SW,234,10.0,11.0,89,0.00,,,0.01,146,Wunderground v.1.15,2013-10-18 15:41:00,
2013-10-18 10:42:00,47.7,44.6,29.94,SW,236,8.0,11.0,89,0.00,,,0.01,155,Wunderground v.1.15,2013-10-18 15:42:00,
2013-10-18 10:43:00,47.7,44.6,29.94,SW,234,11.0,11.0,89,0.00,,,0.01,162,Wunderground v.1.15,2013-10-18 15:43:00,
2013-10-18 10:45:00,47.7,44.6,29.94,SW,231,7.0,14.0,89,0.00,,,0.01,163,Wunderground v.1.15,2013-10-18 15:45:00,
2013-10-18 10:46:00,47.7,44.6,29.94,SW,232,10.0,14.0,89,0.00,,,0.01,146,Wunderground v.1.15,2013-10-18 15:46:00,
2013-10-18 10:47:00,47.7,44.6,29.94,WSW,255,11.0,14.0,89,0.00,,,0.01,134,Wunderground v.1.15,2013-10-18 15:47:00,
2013-10-18 10:48:00,47.7,44.6,29.94,SW,220,9.0,18.0,89,0.00,,,0.01,121,Wunderground v.1.15,2013-10-18 15:48:00,
2013-10-18 10:50:00,47.6,44.5,29.94,SW,229,10.0,14.0,89,0.00,,,0.01,105,Wunderground v.1.15,2013-10-18 15:50:00,
2013-10-18 10:52:00,47.6,44.5,29.95,SSW,212,12.0,15.0,89,0.00,,,0.01,107,Wunderground v.1.15,2013-10-18 15:52:00,
2013-10-18 10:53:00,47.5,44.4,29.94,SW,234,19.0,21.0,89,0.00,,,0.01,148,Wunderground v.1.15,2013-10-18 15:53:00,
2013-10-18 10:56:00,47.3,44.2,29.94,WSW,238,11.0,21.0,89,0.00,,,0.01,155,Wunderground v.1.15,2013-10-18 15:56:00,
2013-10-18 10:57:00,47.2,44.1,29.94,SW,232,10.0,21.0,89,0.00,,,0.01,142,Wunderground v.1.15,2013-10-18 15:57:00,
2013-10-18 10:59:00,47.1,44.0,29.95,WSW,248,8.0,21.0,89,0.00,,,0.01,102,Wunderground v.1.15,2013-10-18 15:59:00,
2013-10-18 11:01:00,47.1,44.0,29.94,WSW,247,12.0,18.0,89,0.00,,,0.01,88,Wunderground v.1.15,2013-10-18 16:01:00,
2013-10-18 11:02:00,47.0,43.6,29.95,WSW,244,7.0,18.0,88,0.00,,,0.01,98,Wunderground v.1.15,2013-10-18 16:02:00,
2013-10-18 11:03:00,47.0,43.6,29.95,WSW,244,6.0,18.0,88,0.00,,,0.01,98,Wunderground v.1.15,2013-10-18 16:03:00,
2013-10-18 11:04:00,47.0,43.6,29.94,SW,235,11.0,18.0,88,0.00,,,0.01,120,Wunderground v.1.15,2013-10-18 16:04:00,
2013-10-18 11:06:00,47.0,43.6,29.94,SW,228,7.0,18.0,88,0.00,,,0.01,163,Wunderground v.1.15,2013-10-18 16:06:00,
2013-10-18 11:08:00,47.0,43.6,29.95,WNW,298,5.0,18.0,88,0.00,,,0.01,190,Wunderground v.1.15,2013-10-18 16:08:00,
2013-10-18 11:09:00,47.1,43.7,29.95,SW,219,9.0,18.0,88,0.00,,,0.01,214,Wunderground v.1.15,2013-10-18 16:09:00,
2013-10-18 11:11:00,47.2,43.8,29.95,WSW,240,8.0,15.0,88,0.00,,,0.01,207,Wunderground v.1.15,2013-10-18 16:11:00,
2013-10-18 11:13:00,47.3,43.9,29.95,SW,231,8.0,15.0,88,0.00,,,0.01,141,Wunderground v.1.15,2013-10-18 16:13:00,
2013-10-18 11:14:00,47.3,43.9,29.95,SW,229,3.0,15.0,88,0.00,,,0.01,118,Wunderground v.1.15,2013-10-18 16:14:00,
2013-10-18 11:16:00,47.4,44.0,29.95,SW,218,11.0,15.0,88,0.00,,,0.01,125,Wunderground v.1.15,2013-10-18 16:16:00,
2013-10-18 11:18:00,47.4,43.7,29.95,SW,232,10.0,15.0,87,0.00,,,0.01,137,Wunderground v.1.15,2013-10-18 16:18:00,
2013-10-18 11:20:00,47.5,43.8,29.95,SSW,213,6.0,10.0,87,0.00,,,0.01,134,Wunderground v.1.15,2013-10-18 16:20:00,
2013-10-18 11:21:00,47.5,43.8,29.95,SW,220,8.0,14.0,87,0.00,,,0.01,178,Wunderground v.1.15,2013-10-18 16:21:00,
2013-10-18 11:23:00,47.5,43.8,29.95,SW,225,11.0,14.0,87,0.00,,,0.01,162,Wunderground v.1.15,2013-10-18 16:23:00,
2013-10-18 11:24:00,47.5,43.8,29.95,SW,236,7.0,17.0,87,0.00,,,0.01,144,Wunderground v.1.15,2013-10-18 16:24:00,
2013-10-18 11:25:00,47.5,43.8,29.95,SW,222,10.0,17.0,87,0.00,,,0.01,144,Wunderground v.1.15,2013-10-18 16:25:00,
2013-10-18 11:27:00,47.5,43.8,29.95,SSW,210,7.0,17.0,87,0.00,,,0.01,174,Wunderground v.1.15,2013-10-18 16:27:00,
2013-10-18 11:28:00,47.5,43.8,29.95,SSW,213,3.0,17.0,87,0.00,,,0.01,155,Wunderground v.1.15,2013-10-18 16:28:00,
2013-10-18 11:29:00,47.5,43.8,29.95,WSW,250,10.0,17.0,87,0.00,,,0.01,141,Wunderground v.1.15,2013-10-18 16:29:00,
2013-10-18 11:30:00,47.5,43.8,29.95,WSW,252,14.0,14.0,87,0.00,,,0.01,134,Wunderground v.1.15,2013-10-18 16:30:00,
2013-10-18 11:31:00,47.5,43.5,29.95,SW,225,14.0,15.0,86,0.00,,,0.01,118,Wunderground v.1.15,2013-10-18 16:31:00,
2013-10-18 11:33:00,47.4,43.4,29.95,SW,219,13.0,24.0,86,0.00,,,0.01,130,Wunderground v.1.15,2013-10-18 16:33:00,
2013-10-18 11:34:00,47.4,43.1,29.95,WSW,238,11.0,24.0,85,0.00,,,0.01,125,Wunderground v.1.15,2013-10-18 16:34:00,
2013-10-18 11:35:00,47.3,43.3,29.95,West,263,6.0,24.0,86,0.00,,,0.01,113,Wunderground v.1.15,2013-10-18 16:35:00,
2013-10-18 11:36:00,47.3,43.3,29.95,WSW,252,12.0,24.0,86,0.00,,,0.01,105,Wunderground v.1.15,2013-10-18 16:36:00,
2013-10-18 11:38:00,47.2,43.2,29.95,WSW,240,12.0,24.0,86,0.00,,,0.01,104,Wunderground v.1.15,2013-10-18 16:38:00,
2013-10-18 11:39:00,47.2,43.2,29.95,SW,227,12.0,24.0,86,0.00,,,0.01,105,Wunderground v.1.15,2013-10-18 16:39:00,
2013-10-18 11:40:00,47.2,43.2,29.95,SW,216,5.0,18.0,86,0.00,,,0.01,116,Wunderground v.1.15,2013-10-18 16:40:00,
2013-10-18 11:41:00,47.2,43.2,29.95,SW,231,6.0,18.0,86,0.00,,,0.01,123,Wunderground v.1.15,2013-10-18 16:41:00,
2013-10-18 11:43:00,47.2,43.2,29.95,SW,227,5.0,18.0,86,0.00,,,0.01,118,Wunderground v.1.15,2013-10-18 16:43:00,
2013-10-18 11:44:00,47.2,43.2,29.95,SW,229,10.0,18.0,86,0.00,,,0.01,114,Wunderground v.1.15,2013-10-18 16:44:00,
2013-10-18 11:45:00,47.2,43.2,29.95,WSW,258,2.0,18.0,86,0.00,,,0.01,113,Wunderground v.1.15,2013-10-18 16:45:00,
2013-10-18 11:46:00,47.3,43.3,29.95,SW,230,13.0,18.0,86,0.00,,,0.01,95,Wunderground v.1.15,2013-10-18 16:46:00,
2013-10-18 11:48:00,47.3,43.3,29.95,SW,235,14.0,18.0,86,0.00,,,0.01,95,Wunderground v.1.15,2013-10-18 16:48:00,
2013-10-18 11:49:00,47.3,43.3,29.95,WSW,246,7.0,18.0,86,0.00,,,0.01,95,Wunderground v.1.15,2013-10-18 16:49:00,
2013-10-18 11:50:00,47.3,43.3,29.95,SW,226,8.0,11.0,86,0.00,,,0.01,100,Wunderground v.1.15,2013-10-18 16:50:00,
2013-10-18 11:51:00,47.3,43.3,29.96,WSW,242,14.0,15.0,86,0.00,,,0.01,95,Wunderground v.1.15,2013-10-18 16:51:00,
2013-10-18 11:52:00,47.3,43.3,29.96,SW,236,14.0,16.0,86,0.00,,,0.01,100,Wunderground v.1.15,2013-10-18 16:52:00,
2013-10-18 11:53:00,47.3,43.3,29.96,WSW,240,12.0,20.0,86,0.00,,,0.01,104,Wunderground v.1.15,2013-10-18 16:53:00,
2013-10-18 11:54:00,47.2,43.2,29.96,SW,228,12.0,20.0,86,0.00,,,0.01,104,Wunderground v.1.15,2013-10-18 16:54:00,
2013-10-18 11:55:00,47.2,43.2,29.96,SW,218,7.0,20.0,86,0.00,,,0.01,118,Wunderground v.1.15,2013-10-18 16:55:00,
2013-10-18 11:56:00,47.2,43.2,29.96,WSW,246,21.0,21.0,86,0.00,,,0.01,137,Wunderground v.1.15,2013-10-18 16:56:00,
2013-10-18 11:57:00,47.2,43.2,29.96,SSW,213,6.0,21.0,86,0.00,,,0.01,149,Wunderground v.1.15,2013-10-18 16:57:00,
2013-10-18 11:59:00,47.1,43.1,29.96,SSW,211,11.0,23.0,86,0.00,,,0.01,149,Wunderground v.1.15,2013-10-18 16:59:00,
2013-10-18 12:01:00,47.0,43.3,29.96,SW,233,15.0,20.0,87,0.00,,,0.01,202,Wunderground v.1.15,2013-10-18 17:01:00,
2013-10-18 12:02:00,47.0,43.3,29.96,SW,221,12.0,20.0,87,0.00,,,0.01,232,Wunderground v.1.15,2013-10-18 17:02:00,
2013-10-18 12:04:00,47.0,43.3,29.96,WSW,238,17.0,20.0,87,0.00,,,0.01,267,Wunderground v.1.15,2013-10-18 17:04:00,
2013-10-18 12:06:00,47.0,43.3,29.96,SW,226,12.0,20.0,87,0.00,,,0.01,295,Wunderground v.1.15,2013-10-18 17:06:00,
2013-10-18 12:07:00,47.0,43.3,29.95,WSW,246,8.0,20.0,87,0.00,,,0.01,313,Wunderground v.1.15,2013-10-18 17:07:00,
2013-10-18 12:08:00,47.0,43.3,29.96,WSW,241,8.0,20.0,87,0.00,,,0.01,362,Wunderground v.1.15,2013-10-18 17:08:00,
2013-10-18 12:09:00,47.2,43.5,29.95,West,274,4.0,20.0,87,0.00,,,0.01,485,Wunderground v.1.15,2013-10-18 17:09:00,
2013-10-18 12:10:00,47.2,43.5,29.95,WSW,255,11.0,14.0,87,0.00,,,0.01,585,Wunderground v.1.15,2013-10-18 17:10:00,
2013-10-18 12:11:00,47.4,43.7,29.95,WSW,256,11.0,19.0,87,0.00,,,0.01,585,Wunderground v.1.15,2013-10-18 17:11:00,
2013-10-18 12:12:00,47.6,43.9,29.95,SW,223,5.0,19.0,87,0.00,,,0.01,327,Wunderground v.1.15,2013-10-18 17:12:00,
2013-10-18 12:13:00,47.6,43.6,29.95,West,279,13.0,19.0,86,0.00,,,0.01,327,Wunderground v.1.15,2013-10-18 17:13:00,
2013-10-18 12:14:00,47.8,43.8,29.95,SW,225,6.0,20.0,86,0.00,,,0.01,327,Wunderground v.1.15,2013-10-18 17:14:00,
2013-10-18 12:15:00,47.8,43.8,29.95,SW,222,8.0,20.0,86,0.00,,,0.01,288,Wunderground v.1.15,2013-10-18 17:15:00,
2013-10-18 12:16:00,47.9,43.9,29.95,SW,229,10.0,20.0,86,0.00,,,0.01,246,Wunderground v.1.15,2013-10-18 17:16:00,
2013-10-18 12:18:00,48.1,44.1,29.95,SW,217,21.0,21.0,86,0.00,,,0.01,162,Wunderground v.1.15,2013-10-18 17:18:00,
2013-10-18 12:19:00,48.1,43.8,29.95,SW,236,5.0,21.0,85,0.00,,,0.01,153,Wunderground v.1.15,2013-10-18 17:19:00,
2013-10-18 12:20:00,48.1,43.5,29.95,West,261,17.0,17.0,84,0.00,,,0.01,153,Wunderground v.1.15,2013-10-18 17:20:00,
2013-10-18 12:21:00,48.1,43.5,29.95,SSW,196,4.0,18.0,84,0.00,,,0.01,130,Wunderground v.1.15,2013-10-18 17:21:00,
2013-10-18 12:23:00,47.9,43.3,29.95,SW,232,12.0,18.0,84,0.00,,,0.01,127,Wunderground v.1.15,2013-10-18 17:23:00,
2013-10-18 12:25:00,47.8,43.2,29.95,WSW,241,10.0,18.0,84,0.00,,,0.01,141,Wunderground v.1.15,2013-10-18 17:25:00,
2013-10-18 12:26:00,47.6,43.0,29.95,WSW,244,17.0,19.0,84,0.00,,,0.01,141,Wunderground v.1.15,2013-10-18 17:26:00,
2013-10-18 12:29:00,47.4,43.1,29.95,SSW,211,10.0,21.0,85,0.00,,,0.01,213,Wunderground v.1.15,2013-10-18 17:29:00,
2013-10-18 12:30:00,47.3,43.3,29.95,SW,231,11.0,13.0,86,0.00,,,0.01,209,Wunderground v.1.15,2013-10-18 17:30:00,
2013-10-18 12:31:00,47.2,43.2,29.95,WSW,251,12.0,13.0,86,0.00,,,0.01,214,Wunderground v.1.15,2013-10-18 17:31:00,
2013-10-18 12:32:00,47.3,43.3,29.95,SW,233,8.0,17.0,86,0.00,,,0.01,234,Wunderground v.1.15,2013-10-18 17:32:00,
2013-10-18 12:34:00,47.2,43.2,29.95,SW,225,13.0,20.0,86,0.00,,,0.01,227,Wunderground v.1.15,2013-10-18 17:34:00,
2013-10-18 12:35:00,47.1,43.1,29.95,SW,234,13.0,20.0,86,0.00,,,0.01,227,Wunderground v.1.15,2013-10-18 17:35:00,
2013-10-18 12:36:00,47.2,43.2,29.95,WSW,247,14.0,20.0,86,0.00,,,0.01,209,Wunderground v.1.15,2013-10-18 17:36:00,
2013-10-18 12:37:00,47.2,43.2,29.95,WSW,248,8.0,20.0,86,0.00,,,0.01,209,Wunderground v.1.15,2013-10-18 17:37:00,
2013-10-18 12:40:00,47.2,43.2,29.96,WSW,238,13.0,13.0,86,0.00,,,0.01,158,Wunderground v.1.15,2013-10-18 17:40:00,
2013-10-18 12:42:00,47.2,43.2,29.96,SW,226,7.0,14.0,86,0.00,,,0.01,135,Wunderground v.1.15,2013-10-18 17:42:00,
2013-10-18 12:45:00,47.1,42.8,29.96,SW,221,12.0,18.0,85,0.00,,,0.01,151,Wunderground v.1.15,2013-10-18 17:45:00,
2013-10-18 12:46:00,47.1,42.8,29.96,SW,232,12.0,21.0,85,0.00,,,0.01,146,Wunderground v.1.15,2013-10-18 17:46:00,
2013-10-18 12:47:00,46.9,42.6,29.96,WSW,247,5.0,21.0,85,0.00,,,0.01,155,Wunderground v.1.15,2013-10-18 17:47:00,
2013-10-18 12:48:00,46.8,42.8,29.96,West,265,6.0,22.0,86,0.00,,,0.01,162,Wunderground v.1.15,2013-10-18 17:48:00,
2013-10-18 12:50:00,46.6,42.6,29.96,SW,214,5.0,12.0,86,0.00,,,0.01,281,Wunderground v.1.15,2013-10-18 17:50:00,
2013-10-18 12:51:00,46.6,42.9,29.96,SSW,210,9.0,12.0,87,0.00,,,0.01,281,Wunderground v.1.15,2013-10-18 17:51:00,
2013-10-18 12:52:00,46.6,42.9,29.96,WSW,240,8.0,20.0,87,0.00,,,0.01,306,Wunderground v.1.15,2013-10-18 17:52:00,
2013-10-18 12:53:00,46.5,42.8,29.96,West,269,5.0,20.0,87,0.00,,,0.01,287,Wunderground v.1.15,2013-10-18 17:53:00,
2013-10-18 12:55:00,46.5,42.8,29.95,WSW,247,11.0,20.0,87,0.00,,,0.01,244,Wunderground v.1.15,2013-10-18 17:55:00,
2013-10-18 12:56:00,46.5,42.8,29.95,WSW,247,17.0,20.0,87,0.00,,,0.01,244,Wunderground v.1.15,2013-10-18 17:56:00,
2013-10-18 12:57:00,46.5,42.5,29.95,SW,226,11.0,20.0,86,0.00,,,0.01,220,Wunderground v.1.15,2013-10-18 17:57:00,
2013-10-18 12:58:00,46.6,42.9,29.95,SW,226,14.0,20.0,87,0.00,,,0.01,223,Wunderground v.1.15,2013-10-18 17:58:00,
2013-10-18 13:00:00,46.6,42.6,29.95,West,269,6.0,13.0,86,0.00,,,0.01,207,Wunderground v.1.15,2013-10-18 18:00:00,
2013-10-18 13:01:00,46.7,42.7,29.95,SW,231,11.0,16.0,86,0.00,,,0.01,193,Wunderground v.1.15,2013-10-18 18:01:00,
2013-10-18 13:02:00,46.7,42.7,29.95,West,259,7.0,18.0,86,0.00,,,0.01,193,Wunderground v.1.15,2013-10-18 18:02:00,
2013-10-18 13:03:00,46.7,42.7,29.95,WSW,248,11.0,18.0,86,0.00,,,0.01,186,Wunderground v.1.15,2013-10-18 18:03:00,
2013-10-18 13:04:00,46.7,42.7,29.95,West,262,7.0,18.0,86,0.00,,,0.01,202,Wunderground v.1.15,2013-10-18 18:04:00,
2013-10-18 13:05:00,46.8,42.8,29.95,SW,233,12.0,18.0,86,0.00,,,0.01,265,Wunderground v.1.15,2013-10-18 18:05:00,
2013-10-18 13:07:00,46.8,42.5,29.95,SW,234,7.0,18.0,85,0.00,,,0.01,257,Wunderground v.1.15,2013-10-18 18:07:00,
2013-10-18 13:08:00,46.8,42.5,29.95,SW,218,9.0,18.0,85,0.00,,,0.01,257,Wunderground v.1.15,2013-10-18 18:08:00,
2013-10-18 13:09:00,46.9,42.6,29.95,WSW,258,8.0,18.0,85,0.00,,,0.01,230,Wunderground v.1.15,2013-10-18 18:09:00,
2013-10-18 13:11:00,47.0,42.7,29.95,WSW,249,11.0,14.0,85,0.00,,,0.01,316,Wunderground v.1.15,2013-10-18 18:11:00,
2013-10-18 13:12:00,47.0,42.7,29.95,SW,217,8.0,14.0,85,0.00,,,0.01,316,Wunderground v.1.15,2013-10-18 18:12:00,
2013-10-18 13:13:00,47.0,42.4,29.95,SW,223,10.0,14.0,84,0.00,,,0.01,316,Wunderground v.1.15,2013-10-18 18:13:00,
2013-10-18 13:15:00,47.0,42.1,29.95,SSW,212,14.0,17.0,83,0.00,,,0.01,373,Wunderground v.1.15,2013-10-18 18:15:00,
2013-10-18 13:17:00,47.1,42.2,29.94,SW,227,5.0,17.0,83,0.00,,,0.01,411,Wunderground v.1.15,2013-10-18 18:17:00,
2013-10-18 13:18:00,47.1,42.5,29.94,SW,228,6.0,17.0,84,0.00,,,0.01,411,Wunderground v.1.15,2013-10-18 18:18:00,
2013-10-18 13:19:00,47.2,42.6,29.94,SW,214,9.0,17.0,84,0.00,,,0.01,283,Wunderground v.1.15,2013-10-18 18:19:00,
2013-10-18 13:20:00,47.2,42.3,29.95,SW,223,9.0,18.0,83,0.00,,,0.01,281,Wunderground v.1.15,2013-10-18 18:20:00,
2013-10-18 13:22:00,47.2,42.0,29.95,SW,230,12.0,20.0,82,0.00,,,0.01,278,Wunderground v.1.15,2013-10-18 18:22:00,
2013-10-18 13:23:00,47.1,41.9,29.95,SW,214,10.0,20.0,82,0.00,,,0.01,248,Wunderground v.1.15,2013-10-18 18:23:00,
2013-10-18 13:24:00,47.1,42.2,29.95,SW,217,18.0,20.0,83,0.00,,,0.01,227,Wunderground v.1.15,2013-10-18 18:24:00,
2013-10-18 13:25:00,47.0,41.8,29.95,WSW,247,11.0,21.0,82,0.00,,,0.01,232,Wunderground v.1.15,2013-10-18 18:25:00,
2013-10-18 13:27:00,47.0,42.1,29.96,SW,227,10.0,21.0,83,0.00,,,0.01,207,Wunderground v.1.15,2013-10-18 18:27:00,
2013-10-18 13:28:00,47.0,42.1,29.96,WSW,244,7.0,21.0,83,0.00,,,0.01,207,Wunderground v.1.15,2013-10-18 18:28:00,
2013-10-18 13:29:00,47.0,42.1,29.95,SW,235,11.0,21.0,83,0.00,,,0.01,192,Wunderground v.1.15,2013-10-18 18:29:00,
2013-10-18 13:31:00,47.0,42.1,29.96,SW,235,12.0,13.0,83,0.00,,,0.01,229,Wunderground v.1.15,2013-10-18 18:31:00,
2013-10-18 13:33:00,47.0,42.1,29.96,WSW,258,19.0,19.0,83,0.00,,,0.01,207,Wunderground v.1.15,2013-10-18 18:33:00,
2013-10-18 13:34:00,47.0,42.1,29.96,SW,232,16.0,21.0,83,0.00,,,0.01,195,Wunderground v.1.15,2013-10-18 18:34:00,
2013-10-18 13:37:00,47.0,41.8,29.96,SSW,209,8.0,21.0,82,0.00,,,0.01,192,Wunderground v.1.15,2013-10-18 18:37:00,
2013-10-18 13:38:00,47.0,41.8,29.96,SW,234,7.0,21.0,82,0.00,,,0.01,199,Wunderground v.1.15,2013-10-18 18:38:00,
2013-10-18 13:39:00,46.9,41.7,29.96,WSW,240,13.0,21.0,82,0.00,,,0.01,193,Wunderground v.1.15,2013-10-18 18:39:00,
2013-10-18 13:40:00,46.9,41.7,29.95,SSW,204,10.0,13.0,82,0.00,,,0.01,181,Wunderground v.1.15,2013-10-18 18:40:00,
2013-10-18 13:43:00,46.9,41.7,29.95,SW,234,15.0,17.0,82,0.00,,,0.01,155,Wunderground v.1.15,2013-10-18 18:43:00,
2013-10-18 13:44:00,46.9,41.4,29.95,SW,221,6.0,21.0,81,0.00,,,0.01,149,Wunderground v.1.15,2013-10-18 18:44:00,
2013-10-18 13:45:00,46.8,41.3,29.95,SW,236,11.0,21.0,81,0.00,,,0.01,153,Wunderground v.1.15,2013-10-18 18:45:00,
2013-10-18 13:47:00,46.8,41.6,29.95,SW,223,6.0,21.0,82,0.00,,,0.01,167,Wunderground v.1.15,2013-10-18 18:47:00,
2013-10-18 13:48:00,46.8,41.9,29.95,WSW,252,6.0,21.0,83,0.00,,,0.01,202,Wunderground v.1.15,2013-10-18 18:48:00,
2013-10-18 13:49:00,46.9,42.0,29.95,SW,236,5.0,21.0,83,0.00,,,0.01,192,Wunderground v.1.15,2013-10-18 18:49:00,
2013-10-18 13:50:00,46.9,42.0,29.95,West,278,14.0,14.0,83,0.00,,,0.01,186,Wunderground v.1.15,2013-10-18 18:50:00,
2013-10-18 13:52:00,47.0,41.8,29.95,WSW,252,10.0,16.0,82,0.00,,,0.01,146,Wunderground v.1.15,2013-10-18 18:52:00,
2013-10-18 13:53:00,47.0,41.8,29.95,WSW,257,4.0,16.0,82,0.00,,,0.01,144,Wunderground v.1.15,2013-10-18 18:53:00,
2013-10-18 13:54:00,47.0,41.8,29.95,West,269,10.0,16.0,82,0.00,,,0.01,135,Wunderground v.1.15,2013-10-18 18:54:00,
2013-10-18 13:55:00,47.0,41.8,29.95,SW,231,8.0,16.0,82,0.00,,,0.01,123,Wunderground v.1.15,2013-10-18 18:55:00,
2013-10-18 13:56:00,47.1,41.9,29.95,SW,231,6.0,16.0,82,0.00,,,0.01,111,Wunderground v.1.15,2013-10-18 18:56:00,
2013-10-18 13:57:00,47.0,41.8,29.95,WSW,253,7.0,16.0,82,0.00,,,0.01,105,Wunderground v.1.15,2013-10-18 18:57:00,
2013-10-18 13:58:00,47.0,41.8,29.95,WSW,254,6.0,16.0,82,0.00,,,0.01,105,Wunderground v.1.15,2013-10-18 18:58:00,
2013-10-18 14:00:00,47.0,41.8,29.95,WSW,237,16.0,20.0,82,0.00,,,0.01,105,Wunderground v.1.15,2013-10-18 19:00:00,
2013-10-18 14:01:00,47.0,41.8,29.95,SW,236,7.0,20.0,82,0.00,,,0.01,105,Wunderground v.1.15,2013-10-18 19:01:00,
2013-10-18 14:03:00,46.9,41.7,29.96,SW,229,4.0,20.0,82,0.00,,,0.01,91,Wunderground v.1.15,2013-10-18 19:03:00,
2013-10-18 14:05:00,46.9,41.7,29.96,SW,235,4.0,20.0,82,0.00,,,0.01,100,Wunderground v.1.15,2013-10-18 19:05:00,
2013-10-18 14:06:00,46.8,41.6,29.97,West,262,5.0,20.0,82,0.00,,,0.01,98,Wunderground v.1.15,2013-10-18 19:06:00,
2013-10-18 14:08:00,46.8,41.6,29.97,SW,217,9.0,20.0,82,0.00,,,0.01,84,Wunderground v.1.15,2013-10-18 19:08:00,
2013-10-18 14:09:00,46.8,41.6,29.97,SW,231,13.0,20.0,82,0.00,,,0.01,79,Wunderground v.1.15,2013-10-18 19:09:00,
2013-10-18 14:10:00,46.7,41.8,29.97,WSW,252,6.0,11.0,83,0.00,,,0.01,74,Wunderground v.1.15,2013-10-18 19:10:00,
2013-10-18 14:11:00,46.7,41.8,29.97,SW,234,12.0,21.0,83,0.00,,,0.01,72,Wunderground v.1.15,2013-10-18 19:11:00,
2013-10-18 14:12:00,46.7,41.8,29.97,WSW,257,5.0,21.0,83,0.00,,,0.01,72,Wunderground v.1.15,2013-10-18 19:12:00,
2013-10-18 14:14:00,46.5,41.3,29.97,SW,225,13.0,21.0,82,0.00,,,0.01,77,Wunderground v.1.15,2013-10-18 19:14:00,
2013-10-18 14:15:00,46.4,41.2,29.97,SW,225,10.0,21.0,82,0.00,,,0.01,81,Wunderground v.1.15,2013-10-18 19:15:00,
2013-10-18 14:16:00,46.3,41.4,29.97,SSW,197,10.0,21.0,83,0.00,,,0.01,83,Wunderground v.1.15,2013-10-18 19:16:00,
2013-10-18 14:17:00,46.2,41.3,29.97,WSW,252,13.0,21.0,83,0.00,,,0.01,84,Wunderground v.1.15,2013-10-18 19:17:00,
2013-10-18 14:18:00,46.1,41.2,29.97,SW,221,13.0,21.0,83,0.00,,,0.01,79,Wunderground v.1.15,2013-10-18 19:18:00,
2013-10-18 14:19:00,46.1,41.2,29.97,WSW,239,14.0,21.0,83,0.00,,,0.01,79,Wunderground v.1.15,2013-10-18 19:19:00,
2013-10-18 14:20:00,46.0,41.1,29.97,WSW,242,4.0,11.0,83,0.00,,,0.01,84,Wunderground v.1.15,2013-10-18 19:20:00,
2013-10-18 14:21:00,46.0,41.1,29.97,WNW,302,5.0,11.0,83,0.00,,,0.01,93,Wunderground v.1.15,2013-10-18 19:21:00,
2013-10-18 14:22:00,46.0,41.4,29.97,WSW,245,7.0,11.0,84,0.00,,,0.01,90,Wunderground v.1.15,2013-10-18 19:22:00,
2013-10-18 14:23:00,46.0,41.4,29.97,West,269,3.0,11.0,84,0.00,,,0.01,84,Wunderground v.1.15,2013-10-18 19:23:00,
2013-10-18 14:24:00,46.0,41.4,29.97,WSW,237,7.0,11.0,84,0.00,,,0.01,81,Wunderground v.1.15,2013-10-18 19:24:00,
2013-10-18 14:25:00,46.0,41.4,29.97,SW,223,6.0,12.0,84,0.00,,,0.01,88,Wunderground v.1.15,2013-10-18 19:25:00,
2013-10-18 14:26:00,46.0,41.4,29.97,North,355,4.0,12.0,84,0.00,,,0.01,88,Wunderground v.1.15,2013-10-18 19:26:00,
2013-10-18 14:27:00,46.1,41.5,29.97,NW,316,1.0,12.0,84,0.00,,,0.01,76,Wunderground v.1.15,2013-10-18 19:27:00,
2013-10-18 14:28:00,46.1,41.5,29.96,WNW,298,12.0,12.0,84,0.00,,,0.01,70,Wunderground v.1.15,2013-10-18 19:28:00,
2013-10-18 14:29:00,46.0,41.4,29.97,WSW,237,10.0,14.0,84,0.00,,,0.01,86,Wunderground v.1.15,2013-10-18 19:29:00,
2013-10-18 14:30:00,46.0,41.4,29.97,WSW,247,6.0,13.0,84,0.00,,,0.01,76,Wunderground v.1.15,2013-10-18 19:30:00,
2013-10-18 14:32:00,46.0,41.4,29.97,SW,234,7.0,13.0,84,0.00,,,0.01,74,Wunderground v.1.15,2013-10-18 19:32:00,
2013-10-18 14:33:00,46.0,41.4,29.97,SW,224,10.0,13.0,84,0.00,,,0.01,72,Wunderground v.1.15,2013-10-18 19:33:00,
2013-10-18 14:34:00,45.9,41.6,29.97,WSW,245,10.0,13.0,85,0.00,,,0.01,76,Wunderground v.1.15,2013-10-18 19:34:00,
2013-10-18 14:36:00,45.9,41.6,29.97,SW,230,11.0,13.0,85,0.00,,,0.01,76,Wunderground v.1.15,2013-10-18 19:36:00,
2013-10-18 14:37:00,45.8,41.5,29.97,SW,229,10.0,13.0,85,0.00,,,0.01,76,Wunderground v.1.15,2013-10-18 19:37:00,
2013-10-18 14:38:00,45.8,41.5,29.97,SW,223,8.0,13.0,85,0.00,,,0.01,76,Wunderground v.1.15,2013-10-18 19:38:00,
2013-10-18 14:39:00,45.8,41.5,29.97,SW,234,10.0,13.0,85,0.00,,,0.01,86,Wunderground v.1.15,2013-10-18 19:39:00,
2013-10-18 14:42:00,45.7,41.8,29.96,WSW,258,6.0,10.0,86,0.00,,,0.01,116,Wunderground v.1.15,2013-10-18 19:42:00,
2013-10-18 14:43:00,45.7,41.8,29.96,SW,228,4.0,10.0,86,0.00,,,0.01,113,Wunderground v.1.15,2013-10-18 19:43:00,
2013-10-18 14:44:00,45.7,41.8,29.96,WSW,240,14.0,14.0,86,0.00,,,0.01,121,Wunderground v.1.15,2013-10-18 19:44:00,
2013-10-18 14:45:00,45.7,41.8,29.97,SW,227,11.0,14.0,86,0.00,,,0.01,127,Wunderground v.1.15,2013-10-18 19:45:00,
2013-10-18 14:47:00,45.6,41.4,29.97,WSW,239,2.0,14.0,85,0.00,,,0.01,111,Wunderground v.1.15,2013-10-18 19:47:00,
2013-10-18 14:48:00,45.7,41.4,29.97,WSW,239,3.0,14.0,85,0.00,,,0.01,111,Wunderground v.1.15,2013-10-18 19:48:00,
2013-10-18 14:49:00,45.7,41.4,29.97,WSW,243,6.0,10.0,85,0.00,,,0.01,91,Wunderground v.1.15,2013-10-18 19:49:00,
2013-10-18 14:50:00,45.7,41.4,29.97,SW,230,14.0,14.0,85,0.00,,,0.01,91,Wunderground v.1.15,2013-10-18 19:50:00,
2013-10-18 14:52:00,45.6,41.0,29.96,WSW,257,7.0,17.0,84,0.00,,,0.01,90,Wunderground v.1.15,2013-10-18 19:52:00,
2013-10-18 14:53:00,45.6,41.0,29.96,West,264,11.0,17.0,84,0.00,,,0.01,100,Wunderground v.1.15,2013-10-18 19:53:00,
2013-10-18 14:54:00,45.6,41.0,29.96,SW,229,12.0,17.0,84,0.00,,,0.01,100,Wunderground v.1.15,2013-10-18 19:54:00,
2013-10-18 14:55:00,45.5,40.9,29.96,WSW,237,3.0,17.0,84,0.00,,,0.01,98,Wunderground v.1.15,2013-10-18 19:55:00,
2013-10-18 14:58:00,45.6,41.4,29.96,WSW,242,5.0,17.0,85,0.00,,,0.01,116,Wunderground v.1.15,2013-10-18 19:58:00,
2013-10-18 14:59:00,45.6,41.4,29.96,NW,311,1.0,17.0,85,0.00,,,0.01,113,Wunderground v.1.15,2013-10-18 19:59:00,
2013-10-18 15:00:00,45.6,41.4,29.96,WNW,284,5.0,11.0,85,0.00,,,0.01,109,Wunderground v.1.15,2013-10-18 20:00:00,
2013-10-18 15:03:00,45.7,41.4,29.96,WSW,237,2.0,11.0,85,0.00,,,0.01,118,Wunderground v.1.15,2013-10-18 20:03:00,
2013-10-18 15:04:00,45.7,41.4,29.96,WNW,298,5.0,11.0,85,0.00,,,0.01,104,Wunderground v.1.15,2013-10-18 20:04:00,
2013-10-18 15:05:00,45.7,41.4,29.96,NNW,327,4.0,11.0,85,0.00,,,0.01,104,Wunderground v.1.15,2013-10-18 20:05:00,
2013-10-18 15:08:00,45.7,41.1,29.96,WNW,283,5.0,19.0,84,0.00,,,0.01,77,Wunderground v.1.15,2013-10-18 20:08:00,
2013-10-18 15:09:00,45.7,41.1,29.96,West,265,5.0,19.0,84,0.00,,,0.01,77,Wunderground v.1.15,2013-10-18 20:09:00,
2013-10-18 15:10:00,45.7,41.1,29.97,WNW,288,2.0,11.0,84,0.00,,,0.01,83,Wunderground v.1.15,2013-10-18 20:10:00,
2013-10-18 15:13:00,45.6,41.0,29.97,West,265,6.0,22.0,84,0.00,,,0.01,127,Wunderground v.1.15,2013-10-18 20:13:00,
2013-10-18 15:14:00,45.6,41.0,29.97,NW,304,13.0,22.0,84,0.00,,,0.01,125,Wunderground v.1.15,2013-10-18 20:14:00,
2013-10-18 15:15:00,45.6,40.7,29.97,NW,309,12.0,22.0,83,0.00,,,0.01,120,Wunderground v.1.15,2013-10-18 20:15:00,
2013-10-18 15:16:00,45.5,40.6,29.97,WNW,300,7.0,22.0,83,0.00,,,0.01,81,Wunderground v.1.15,2013-10-18 20:16:00,
2013-10-18 15:19:00,45.5,40.9,29.97,SW,218,0.0,22.0,84,0.00,,,0.01,95,Wunderground v.1.15,2013-10-18 20:19:00,
2013-10-18 15:20:00,45.5,40.9,29.97,WSW,244,4.0,8.0,84,0.00,,,0.01,102,Wunderground v.1.15,2013-10-18 20:20:00,
2013-10-18 15:21:00,45.5,40.9,29.97,WNW,291,4.0,11.0,84,0.00,,,0.01,76,Wunderground v.1.15,2013-10-18 20:21:00,
2013-10-18 15:24:00,45.4,40.5,29.97,WNW,290,2.0,14.0,83,0.00,,,0.01,111,Wunderground v.1.15,2013-10-18 20:24:00,
2013-10-18 15:25:00,45.5,40.9,29.96,WSW,240,4.0,14.0,84,0.00,,,0.01,127,Wunderground v.1.15,2013-10-18 20:25:00,
2013-10-18 15:26:00,45.5,40.9,29.96,WSW,253,10.0,14.0,84,0.00,,,0.01,127,Wunderground v.1.15,2013-10-18 20:26:00,
2013-10-18 15:29:00,45.6,41.0,29.97,West,264,2.0,6.0,84,0.00,,,0.01,93,Wunderground v.1.15,2013-10-18 20:29:00,
2013-10-18 15:30:00,45.6,41.0,29.97,SW,228,4.0,6.0,84,0.00,,,0.01,93,Wunderground v.1.15,2013-10-18 20:30:00,
2013-10-18 15:31:00,45.6,41.0,29.97,West,260,5.0,12.0,84,0.00,,,0.01,98,Wunderground v.1.15,2013-10-18 20:31:00,
2013-10-18 15:32:00,45.6,40.7,29.97,West,261,7.0,14.0,83,0.00,,,0.01,102,Wunderground v.1.15,2013-10-18 20:32:00,
2013-10-18 15:34:00,45.5,40.3,29.97,NW,311,7.0,14.0,82,0.00,,,0.01,84,Wunderground v.1.15,2013-10-18 20:34:00,
2013-10-18 15:36:00,45.5,40.3,29.98,West,259,3.0,14.0,82,0.00,,,0.01,72,Wunderground v.1.15,2013-10-18 20:36:00,
2013-10-18 15:37:00,45.5,40.3,29.97,WSW,257,10.0,14.0,82,0.00,,,0.01,60,Wunderground v.1.15,2013-10-18 20:37:00,
2013-10-18 15:40:00,45.4,40.5,29.98,West,276,2.0,11.0,83,0.00,,,0.01,47,Wunderground v.1.15,2013-10-18 20:40:00,
2013-10-18 15:42:00,45.4,40.5,29.98,WSW,240,2.0,11.0,83,0.00,,,0.01,42,Wunderground v.1.15,2013-10-18 20:42:00,
2013-10-18 15:43:00,45.4,40.5,29.98,West,261,1.0,11.0,83,0.00,,,0.01,40,Wunderground v.1.15,2013-10-18 20:43:00,
2013-10-18 15:46:00,45.4,40.8,29.98,West,260,1.0,11.0,84,0.00,,,0.01,40,Wunderground v.1.15,2013-10-18 20:46:00,
2013-10-18 15:47:00,45.4,40.8,29.98,West,260,1.0,11.0,84,0.00,,,0.01,40,Wunderground v.1.15,2013-10-18 20:47:00,
2013-10-18 15:49:00,45.4,40.8,29.98,SW,236,3.0,11.0,84,0.00,,,0.01,40,Wunderground v.1.15,2013-10-18 20:49:00,
2013-10-18 15:52:00,45.3,40.4,29.97,WSW,240,4.0,12.0,83,0.00,,,0.01,47,Wunderground v.1.15,2013-10-18 20:52:00,
2013-10-18 15:53:00,45.2,40.3,29.97,SW,223,8.0,13.0,83,0.00,,,0.01,60,Wunderground v.1.15,2013-10-18 20:53:00,
2013-10-18 15:55:00,45.1,40.6,29.98,West,275,13.0,13.0,84,0.00,,,0.01,70,Wunderground v.1.15,2013-10-18 20:55:00,
2013-10-18 15:57:00,45.1,40.6,29.97,SW,219,10.0,15.0,84,0.00,,,0.01,70,Wunderground v.1.15,2013-10-18 20:57:00,
2013-10-18 15:58:00,45.1,40.2,29.97,WSW,257,4.0,15.0,83,0.00,,,0.01,63,Wunderground v.1.15,2013-10-18 20:58:00,
2013-10-18 16:02:00,45.1,40.6,29.97,WSW,240,4.0,12.0,84,0.00,,,0.01,70,Wunderground v.1.15,2013-10-18 21:02:00,
2013-10-18 16:03:00,45.1,40.6,29.97,WNW,291,4.0,12.0,84,0.00,,,0.01,70,Wunderground v.1.15,2013-10-18 21:03:00,
2013-10-18 16:07:00,45.1,40.2,29.97,WSW,238,10.0,13.0,83,0.00,,,0.01,72,Wunderground v.1.15,2013-10-18 21:07:00,
2013-10-18 16:08:00,45.1,40.2,29.97,SW,236,6.0,13.0,83,0.00,,,0.01,69,Wunderground v.1.15,2013-10-18 21:08:00,
2013-10-18 16:09:00,45.1,40.2,29.97,WSW,245,7.0,13.0,83,0.00,,,0.01,79,Wunderground v.1.15,2013-10-18 21:09:00,
2013-10-18 16:13:00,45.1,40.2,29.97,WSW,242,5.0,10.0,83,0.00,,,0.01,69,Wunderground v.1.15,2013-10-18 21:13:00,
2013-10-18 16:14:00,45.1,40.2,29.98,WSW,237,6.0,14.0,83,0.00,,,0.01,70,Wunderground v.1.15,2013-10-18 21:14:00,
2013-10-18 16:18:00,45.1,39.9,29.98,WSW,252,4.0,14.0,82,0.00,,,0.01,65,Wunderground v.1.15,2013-10-18 21:18:00,
2013-10-18 16:19:00,45.1,39.9,29.98,SW,231,3.0,14.0,82,0.00,,,0.01,70,Wunderground v.1.15,2013-10-18 21:19:00,
2013-10-18 16:23:00,45.1,39.9,29.98,SW,231,7.0,14.0,82,0.00,,,0.01,62,Wunderground v.1.15,2013-10-18 21:23:00,
2013-10-18 16:24:00,45.1,39.9,29.98,WNW,290,4.0,14.0,82,0.00,,,0.01,63,Wunderground v.1.15,2013-10-18 21:24:00,
2013-10-18 16:25:00,45.1,39.9,29.98,WNW,288,8.0,18.0,82,0.00,,,0.01,67,Wunderground v.1.15,2013-10-18 21:25:00,
2013-10-18 16:28:00,45.1,39.9,29.98,WSW,248,5.0,18.0,82,0.00,,,0.01,54,Wunderground v.1.15,2013-10-18 21:28:00,
2013-10-18 16:29:00,45.2,40.0,29.98,SW,234,11.0,18.0,82,0.00,,,0.01,51,Wunderground v.1.15,2013-10-18 21:29:00,
2013-10-18 16:30:00,45.1,39.6,29.98,SW,230,14.0,17.0,81,0.00,,,0.01,44,Wunderground v.1.15,2013-10-18 21:30:00,
2013-10-18 16:33:00,45.0,39.5,29.98,West,269,3.0,17.0,81,0.00,,,0.01,42,Wunderground v.1.15,2013-10-18 21:33:00,
2013-10-18 16:34:00,45.0,39.5,29.98,West,269,1.0,17.0,81,0.00,,,0.01,54,Wunderground v.1.15,2013-10-18 21:34:00,
2013-10-18 16:35:00,45.0,39.8,29.98,SW,232,3.0,17.0,82,0.00,,,0.01,56,Wunderground v.1.15,2013-10-18 21:35:00,
2013-10-18 16:38:00,45.0,39.8,29.98,South,173,4.0,17.0,82,0.00,,,0.01,72,Wunderground v.1.15,2013-10-18 21:38:00,
2013-10-18 16:39:00,45.0,39.8,29.98,WNW,302,0.0,17.0,82,0.00,,,0.01,69,Wunderground v.1.15,2013-10-18 21:39:00,
2013-10-18 16:40:00,45.0,39.8,29.98,WNW,300,0.0,6.0,82,0.00,,,0.01,67,Wunderground v.1.15,2013-10-18 21:40:00,
2013-10-18 16:43:00,45.1,39.9,29.99,West,279,5.0,12.0,82,0.00,,,0.01,35,Wunderground v.1.15,2013-10-18 21:43:00,
2013-10-18 16:45:00,45.1,39.9,29.99,WNW,286,7.0,12.0,82,0.00,,,0.01,28,Wunderground v.1.15,2013-10-18 21:45:00,
2013-10-18 16:49:00,45.1,39.6,29.99,WNW,291,2.0,12.0,81,0.00,,,0.01,23,Wunderground v.1.15,2013-10-18 21:49:00,
2013-10-18 16:50:00,45.1,39.6,29.98,WSW,245,5.0,11.0,81,0.00,,,0.01,26,Wunderground v.1.15,2013-10-18 21:50:00,
2013-10-18 16:51:00,45.1,39.6,29.98,West,265,1.0,11.0,81,0.00,,,0.01,26,Wunderground v.1.15,2013-10-18 21:51:00,
2013-10-18 16:54:00,45.0,39.5,29.99,SW,227,7.0,11.0,81,0.00,,,0.01,40,Wunderground v.1.15,2013-10-18 21:54:00,
2013-10-18 16:56:00,45.0,39.5,29.98,SW,226,5.0,11.0,81,0.00,,,0.01,42,Wunderground v.1.15,2013-10-18 21:56:00,
2013-10-18 16:57:00,45.0,39.5,29.99,WSW,256,3.0,11.0,81,0.00,,,0.01,46,Wunderground v.1.15,2013-10-18 21:57:00,
2013-10-18 16:59:00,45.1,39.6,29.98,WSW,237,4.0,6.0,81,0.00,,,0.01,51,Wunderground v.1.15,2013-10-18 21:59:00,
2013-10-18 17:01:00,45.1,39.6,29.98,West,265,2.0,10.0,81,0.00,,,0.01,44,Wunderground v.1.15,2013-10-18 22:01:00,
2013-10-18 17:02:00,45.0,39.5,29.98,West,265,2.0,10.0,81,0.00,,,0.01,37,Wunderground v.1.15,2013-10-18 22:02:00,
2013-10-18 17:05:00,45.1,39.6,29.98,West,269,2.0,11.0,81,0.00,,,0.01,35,Wunderground v.1.15,2013-10-18 22:05:00,
2013-10-18 17:07:00,45.1,39.6,29.98,SW,234,6.0,12.0,81,0.00,,,0.01,33,Wunderground v.1.15,2013-10-18 22:07:00,
2013-10-18 17:10:00,45.1,39.6,29.98,SW,231,6.0,11.0,81,0.00,,,0.01,35,Wunderground v.1.15,2013-10-18 22:10:00,
2013-10-18 17:12:00,45.1,39.6,29.98,West,270,6.0,12.0,81,0.00,,,0.01,32,Wunderground v.1.15,2013-10-18 22:12:00,
2013-10-18 17:14:00,45.1,39.6,29.98,WSW,250,0.0,12.0,81,0.00,,,0.01,32,Wunderground v.1.15,2013-10-18 22:14:00,
2013-10-18 17:15:00,45.0,39.5,29.98,WNW,288,1.0,12.0,81,0.00,,,0.01,28,Wunderground v.1.15,2013-10-18 22:15:00,
2013-10-18 17:17:00,45.0,39.5,29.98,SW,235,8.0,12.0,81,0.00,,,0.01,25,Wunderground v.1.15,2013-10-18 22:17:00,
2013-10-18 17:18:00,45.0,39.5,29.98,WNW,300,5.0,12.0,81,0.00,,,0.01,25,Wunderground v.1.15,2013-10-18 22:18:00,
2013-10-18 17:19:00,45.0,39.5,29.98,WSW,252,4.0,12.0,81,0.00,,,0.01,26,Wunderground v.1.15,2013-10-18 22:19:00,
2013-10-18 17:20:00,45.0,39.5,29.98,SW,233,1.0,10.0,81,0.00,,,0.01,25,Wunderground v.1.15,2013-10-18 22:20:00,
2013-10-18 17:23:00,45.0,39.5,29.98,West,272,5.0,14.0,81,0.00,,,0.01,25,Wunderground v.1.15,2013-10-18 22:23:00,
2013-10-18 17:24:00,45.0,39.5,29.98,WNW,288,6.0,14.0,81,0.00,,,0.01,25,Wunderground v.1.15,2013-10-18 22:24:00,
2013-10-18 17:25:00,45.0,39.5,29.99,WNW,290,2.0,14.0,81,0.00,,,0.01,25,Wunderground v.1.15,2013-10-18 22:25:00,
2013-10-18 17:28:00,44.9,39.1,29.98,NW,305,6.0,14.0,80,0.00,,,0.01,26,Wunderground v.1.15,2013-10-18 22:28:00,
2013-10-18 17:29:00,44.9,39.1,29.99,NW,306,0.0,14.0,80,0.00,,,0.01,26,Wunderground v.1.15,2013-10-18 22:29:00,
2013-10-18 17:30:00,45.0,39.5,29.99,NW,307,2.0,4.0,81,0.00,,,0.01,26,Wunderground v.1.15,2013-10-18 22:30:00,
2013-10-18 17:33:00,44.9,39.1,29.99,West,269,2.0,15.0,80,0.00,,,0.01,21,Wunderground v.1.15,2013-10-18 22:33:00,
2013-10-18 17:34:00,44.9,39.1,29.99,West,259,5.0,15.0,80,0.00,,,0.01,21,Wunderground v.1.15,2013-10-18 22:34:00,
2013-10-18 17:35:00,44.9,39.4,29.99,West,280,5.0,15.0,81,0.00,,,0.01,18,Wunderground v.1.15,2013-10-18 22:35:00,
2013-10-18 17:36:00,44.9,39.4,29.99,West,267,6.0,15.0,81,0.00,,,0.01,16,Wunderground v.1.15,2013-10-18 22:36:00,
2013-10-18 17:37:00,44.9,39.4,29.99,West,261,0.0,15.0,81,0.00,,,0.01,14,Wunderground v.1.15,2013-10-18 22:37:00,
2013-10-18 17:38:00,44.9,39.4,29.99,WNW,294,1.0,15.0,81,0.00,,,0.01,14,Wunderground v.1.15,2013-10-18 22:38:00,
2013-10-18 17:39:00,44.9,39.4,30.00,WNW,290,1.0,15.0,81,0.00,,,0.01,14,Wunderground v.1.15,2013-10-18 22:39:00,
2013-10-18 17:40:00,44.9,39.4,30.00,WNW,286,0.0,7.0,81,0.00,,,0.01,12,Wunderground v.1.15,2013-10-18 22:40:00,
2013-10-18 17:41:00,44.9,39.4,30.00,WSW,252,5.0,8.0,81,0.00,,,0.01,12,Wunderground v.1.15,2013-10-18 22:41:00,
2013-10-18 17:42:00,44.9,39.4,30.00,West,279,4.0,8.0,81,0.00,,,0.01,12,Wunderground v.1.15,2013-10-18 22:42:00,
2013-10-18 17:43:00,44.9,39.4,30.00,West,262,2.0,8.0,81,0.00,,,0.01,12,Wunderground v.1.15,2013-10-18 22:43:00,
2013-10-18 17:44:00,44.9,39.4,30.00,West,265,2.0,8.0,81,0.00,,,0.01,11,Wunderground v.1.15,2013-10-18 22:44:00,
2013-10-18 17:46:00,44.9,39.4,30.00,SW,214,6.0,8.0,81,0.00,,,0.01,9,Wunderground v.1.15,2013-10-18 22:46:00,
2013-10-18 17:47:00,44.9,39.7,30.00,WNW,292,4.0,8.0,82,0.00,,,0.01,9,Wunderground v.1.15,2013-10-18 22:47:00,
2013-10-18 17:49:00,44.9,39.4,30.00,West,280,0.0,8.0,81,0.00,,,0.01,7,Wunderground v.1.15,2013-10-18 22:49:00,
2013-10-18 17:50:00,44.9,39.4,30.00,West,281,1.0,5.0,81,0.00,,,0.01,7,Wunderground v.1.15,2013-10-18 22:50:00,
2013-10-18 17:51:00,44.8,39.3,30.00,West,266,0.0,6.0,81,0.00,,,0.01,7,Wunderground v.1.15,2013-10-18 22:51:00,
2013-10-18 17:53:00,44.8,39.3,30.00,WSW,249,0.0,6.0,81,0.00,,,0.01,5,Wunderground v.1.15,2013-10-18 22:53:00,
2013-10-18 17:54:00,44.8,39.3,30.00,West,277,2.0,10.0,81,0.00,,,0.01,5,Wunderground v.1.15,2013-10-18 22:54:00,
2013-10-18 17:55:00,44.8,39.3,30.00,West,276,6.0,10.0,81,0.00,,,0.01,5,Wunderground v.1.15,2013-10-18 22:55:00,
2013-10-18 17:56:00,44.8,39.3,30.00,West,273,1.0,10.0,81,0.00,,,0.01,5,Wunderground v.1.15,2013-10-18 22:56:00,
2013-10-18 17:58:00,44.8,39.3,30.00,WSW,252,3.0,10.0,81,0.00,,,0.01,0,Wunderground v.1.15,2013-10-18 22:58:00,
2013-10-18 17:59:00,44.8,39.3,30.00,WSW,252,0.0,10.0,81,0.00,,,0.01,0,Wunderground v.1.15,2013-10-18 22:59:00,
2013-10-18 18:00:00,44.8,39.3,30.00,WSW,240,4.0,5.0,81,0.00,,,0.01,0,Wunderground v.1.15,2013-10-18 23:00:00,
2013-10-18 18:02:00,44.7,39.2,30.00,SW,230,2.0,6.0,81,0.00,,,0.01,0,Wunderground v.1.15,2013-10-18 23:02:00,
2013-10-18 18:03:00,44.7,39.5,30.00,SW,230,0.0,6.0,82,0.00,,,0.01,0,Wunderground v.1.15,2013-10-18 23:03:00,
2013-10-18 18:04:00,44.7,39.5,30.00,SW,236,0.0,6.0,82,0.00,,,0.01,0,Wunderground v.1.15,2013-10-18 23:04:00,
2013-10-18 18:05:00,44.7,39.5,30.00,WSW,252,4.0,6.0,82,0.00,,,0.01,0,Wunderground v.1.15,2013-10-18 23:05:00,
2013-10-18 18:06:00,44.8,39.6,30.00,WSW,247,2.0,8.0,82,0.00,,,0.01,0,Wunderground v.1.15,2013-10-18 23:06:00,
2013-10-18 18:07:00,44.7,39.5,30.00,WNW,282,11.0,11.0,82,0.00,,,0.01,0,Wunderground v.1.15,2013-10-18 23:07:00,
2013-10-18 18:08:00,44.7,39.5,30.00,WNW,293,1.0,11.0,82,0.00,,,0.01,0,Wunderground v.1.15,2013-10-18 23:08:00,
2013-10-18 18:10:00,44.7,39.5,30.00,WSW,238,2.0,4.0,82,0.00,,,0.01,0,Wunderground v.1.15,2013-10-18 23:10:00,
2013-10-18 18:11:00,44.7,39.2,30.00,WNW,284,4.0,7.0,81,0.00,,,0.01,0,Wunderground v.1.15,2013-10-18 23:11:00,
2013-10-18 18:12:00,44.7,39.5,30.00,West,271,5.0,7.0,82,0.00,,,0.01,0,Wunderground v.1.15,2013-10-18 23:12:00,
2013-10-18 18:13:00,44.7,39.2,30.00,WSW,257,4.0,11.0,81,0.00,,,0.01,0,Wunderground v.1.15,2013-10-18 23:13:00,
2013-10-18 18:15:00,44.7,39.2,30.00,WSW,242,5.0,12.0,81,0.00,,,0.01,0,Wunderground v.1.15,2013-10-18 23:15:00,
2013-10-18 18:16:00,44.7,39.2,30.00,WSW,242,1.0,12.0,81,0.00,,,0.01,0,Wunderground v.1.15,2013-10-18 23:16:00,
2013-10-18 18:17:00,44.7,39.2,30.00,WSW,253,6.0,12.0,81,0.00,,,0.01,0,Wunderground v.1.15,2013-10-18 23:17:00,
2013-10-18 18:18:00,44.7,39.2,30.00,WSW,252,3.0,12.0,81,0.00,,,0.01,0,Wunderground v.1.15,2013-10-18 23:18:00,
2013-10-18 18:20:00,44.7,39.2,30.00,WSW,255,0.0,3.0,81,0.00,,,0.01,0,Wunderground v.1.15,2013-10-18 23:20:00,
2013-10-18 18:22:00,44.7,39.2,30.00,WNW,298,0.0,6.0,81,0.00,,,0.01,0,Wunderground v.1.15,2013-10-18 23:22:00,
2013-10-18 18:23:00,44.6,39.1,30.00,West,278,0.0,6.0,81,0.00,,,0.01,0,Wunderground v.1.15,2013-10-18 23:23:00,
2013-10-18 18:24:00,44.7,39.2,30.00,West,278,0.0,6.0,81,0.00,,,0.01,0,Wunderground v.1.15,2013-10-18 23:24:00,
2013-10-18 18:25:00,44.6,38.8,30.00,West,280,2.0,6.0,80,0.00,,,0.01,0,Wunderground v.1.15,2013-10-18 23:25:00,
2013-10-18 18:27:00,44.6,38.8,30.00,West,274,0.0,6.0,80,0.00,,,0.01,0,Wunderground v.1.15,2013-10-18 23:27:00,
2013-10-18 18:28:00,44.6,39.1,30.00,West,273,4.0,6.0,81,0.00,,,0.01,0,Wunderground v.1.15,2013-10-18 23:28:00,
2013-10-18 18:29:00,44.6,38.8,30.00,West,267,5.0,6.0,80,0.00,,,0.01,0,Wunderground v.1.15,2013-10-18 23:29:00,
2013-10-18 18:30:00,44.6,38.8,30.00,West,271,4.0,9.0,80,0.00,,,0.01,0,Wunderground v.1.15,2013-10-18 23:30:00,
2013-10-18 18:32:00,44.5,38.7,30.00,West,271,0.0,9.0,80,0.00,,,0.01,0,Wunderground v.1.15,2013-10-18 23:32:00,
2013-10-18 18:33:00,44.5,38.7,30.00,WSW,248,2.0,9.0,80,0.00,,,0.01,0,Wunderground v.1.15,2013-10-18 23:33:00,
2013-10-18 18:35:00,44.5,38.7,30.01,WSW,248,0.0,9.0,80,0.00,,,0.01,0,Wunderground v.1.15,2013-10-18 23:35:00,
2013-10-18 18:37:00,44.4,38.9,30.01,WSW,251,1.0,9.0,81,0.00,,,0.01,0,Wunderground v.1.15,2013-10-18 23:37:00,
2013-10-18 18:38:00,44.3,38.8,30.01,SW,236,1.0,9.0,81,0.00,,,0.01,0,Wunderground v.1.15,2013-10-18 23:38:00,
2013-10-18 18:39:00,44.3,38.8,30.01,SW,236,0.0,1.0,81,0.00,,,0.01,0,Wunderground v.1.15,2013-10-18 23:39:00,
2013-10-18 18:40:00,44.2,38.7,30.01,SW,236,0.0,1.0,81,0.00,,,0.01,0,Wunderground v.1.15,2013-10-18 23:40:00,
2013-10-18 18:41:00,44.2,38.7,30.01,SW,236,1.0,6.0,81,0.00,,,0.01,0,Wunderground v.1.15,2013-10-18 23:41:00,
2013-10-18 18:42:00,44.2,38.7,30.01,West,273,0.0,7.0,81,0.00,,,0.01,0,Wunderground v.1.15,2013-10-18 23:42:00,
2013-10-18 18:43:00,44.1,38.6,30.01,West,271,0.0,7.0,81,0.00,,,0.01,0,Wunderground v.1.15,2013-10-18 23:43:00,
2013-10-18 18:45:00,44.0,38.5,30.01,West,271,1.0,7.0,81,0.00,,,0.01,0,Wunderground v.1.15,2013-10-18 23:45:00,
2013-10-18 18:46:00,44.0,38.5,30.01,West,271,1.0,7.0,81,0.00,,,0.01,0,Wunderground v.1.15,2013-10-18 23:46:00,
2013-10-18 18:47:00,43.9,38.4,30.01,West,271,0.0,7.0,81,0.00,,,0.01,0,Wunderground v.1.15,2013-10-18 23:47:00,
2013-10-18 18:48:00,43.8,38.3,30.01,West,265,4.0,7.0,81,0.00,,,0.01,0,Wunderground v.1.15,2013-10-18 23:48:00,
2013-10-18 18:49:00,43.8,38.3,30.01,WSW,252,4.0,7.0,81,0.00,,,0.01,0,Wunderground v.1.15,2013-10-18 23:49:00,
2013-10-18 18:50:00,43.8,38.3,30.01,WSW,252,1.0,2.0,81,0.00,,,0.01,0,Wunderground v.1.15,2013-10-18 23:50:00,
2013-10-18 18:51:00,43.8,38.3,30.01,WSW,252,0.0,2.0,81,0.00,,,0.01,0,Wunderground v.1.15,2013-10-18 23:51:00,
2013-10-18 18:53:00,43.7,38.6,30.01,WSW,252,0.0,2.0,82,0.00,,,0.01,0,Wunderground v.1.15,2013-10-18 23:53:00,
2013-10-18 18:54:00,43.6,38.5,30.01,WSW,250,0.0,4.0,82,0.00,,,0.01,0,Wunderground v.1.15,2013-10-18 23:54:00,
2013-10-18 18:55:00,43.6,38.5,30.01,WSW,250,0.0,4.0,82,0.00,,,0.01,0,Wunderground v.1.15,2013-10-18 23:55:00,
2013-10-18 18:56:00,43.6,38.5,30.01,WSW,250,0.0,4.0,82,0.00,,,0.01,0,Wunderground v.1.15,2013-10-18 23:56:00,
2013-10-18 18:58:00,43.5,38.4,30.02,WSW,250,0.0,4.0,82,0.00,,,0.01,0,Wunderground v.1.15,2013-10-18 23:58:00,
2013-10-18 18:59:00,43.4,38.3,30.02,WSW,250,0.0,0.0,82,0.00,,,0.01,0,Wunderground v.1.15,2013-10-18 23:59:00,
2013-10-18 19:00:00,43.4,38.3,30.02,WSW,250,0.0,0.0,82,0.00,,,0.01,0,Wunderground v.1.15,2013-10-19 00:00:00,
2013-10-18 19:01:00,43.3,38.2,30.02,WSW,250,1.0,1.0,82,0.00,,,0.01,0,Wunderground v.1.15,2013-10-19 00:01:00,
2013-10-18 19:04:00,43.2,38.4,30.02,WSW,250,0.0,3.0,83,0.00,,,0.01,0,Wunderground v.1.15,2013-10-19 00:04:00,
2013-10-18 19:06:00,43.1,38.3,30.02,WSW,250,0.0,3.0,83,0.00,,,0.01,0,Wunderground v.1.15,2013-10-19 00:06:00,
2013-10-18 19:07:00,43.1,38.3,30.02,WSW,250,0.0,3.0,83,0.00,,,0.01,0,Wunderground v.1.15,2013-10-19 00:07:00,
2013-10-18 19:09:00,43.1,38.3,30.02,WSW,250,0.0,3.0,83,0.00,,,0.01,0,Wunderground v.1.15,2013-10-19 00:09:00,
2013-10-18 19:10:00,43.0,38.2,30.02,WSW,250,0.0,0.0,83,0.00,,,0.01,0,Wunderground v.1.15,2013-10-19 00:10:00,
2013-10-18 19:11:00,43.0,38.2,30.02,WSW,250,0.0,0.0,83,0.00,,,0.01,0,Wunderground v.1.15,2013-10-19 00:11:00,
2013-10-18 19:12:00,43.0,38.2,30.02,WSW,250,0.0,0.0,83,0.00,,,0.01,0,Wunderground v.1.15,2013-10-19 00:12:00,
2013-10-18 19:15:00,42.9,38.4,30.02,WSW,250,0.0,3.0,84,0.00,,,0.01,0,Wunderground v.1.15,2013-10-19 00:15:00,
2013-10-18 19:16:00,42.8,38.3,30.02,WSW,250,0.0,3.0,84,0.00,,,0.01,0,Wunderground v.1.15,2013-10-19 00:16:00,
2013-10-18 19:17:00,42.8,38.3,30.02,WSW,250,2.0,3.0,84,0.00,,,0.01,0,Wunderground v.1.15,2013-10-19 00:17:00,
2013-10-18 19:20:00,42.7,38.2,30.02,WSW,250,2.0,2.0,84,0.00,,,0.01,0,Wunderground v.1.15,2013-10-19 00:20:00,
2013-10-18 19:21:00,42.7,38.2,30.02,WSW,250,0.0,2.0,84,0.00,,,0.01,0,Wunderground v.1.15,2013-10-19 00:21:00,
2013-10-18 19:22:00,42.6,38.1,30.02,WSW,250,0.0,2.0,84,0.00,,,0.01,0,Wunderground v.1.15,2013-10-19 00:22:00,
2013-10-18 19:23:00,42.6,38.1,30.02,WSW,250,2.0,2.0,84,0.00,,,0.01,0,Wunderground v.1.15,2013-10-19 00:23:00,
2013-10-18 19:25:00,42.5,38.0,30.02,WSW,250,0.0,3.0,84,0.00,,,0.01,0,Wunderground v.1.15,2013-10-19 00:25:00,
2013-10-18 19:26:00,42.5,38.0,30.02,WSW,250,0.0,3.0,84,0.00,,,0.01,0,Wunderground v.1.15,2013-10-19 00:26:00,
2013-10-18 19:27:00,42.5,38.0,30.02,WSW,250,0.0,3.0,84,0.00,,,0.01,0,Wunderground v.1.15,2013-10-19 00:27:00,
2013-10-18 19:28:00,42.5,38.0,30.02,WSW,250,2.0,4.0,84,0.00,,,0.01,0,Wunderground v.1.15,2013-10-19 00:28:00,
2013-10-18 19:30:00,42.4,37.9,30.02,WSW,250,2.0,2.0,84,0.00,,,0.01,0,Wunderground v.1.15,2013-10-19 00:30:00,
2013-10-18 19:31:00,42.4,37.9,30.02,WSW,250,4.0,4.0,84,0.00,,,0.01,0,Wunderground v.1.15,2013-10-19 00:31:00,
2013-10-18 19:32:00,42.4,37.9,30.02,WSW,250,0.0,4.0,84,0.00,,,0.01,0,Wunderground v.1.15,2013-10-19 00:32:00,
2013-10-18 19:33:00,42.4,38.2,30.03,WSW,250,4.0,4.0,85,0.00,,,0.01,0,Wunderground v.1.15,2013-10-19 00:33:00,
2013-10-18 19:35:00,42.4,38.2,30.03,WSW,250,0.0,4.0,85,0.00,,,0.01,0,Wunderground v.1.15,2013-10-19 00:35:00,
2013-10-18 19:36:00,42.4,38.2,30.03,WSW,250,0.0,4.0,85,0.00,,,0.01,0,Wunderground v.1.15,2013-10-19 00:36:00,
2013-10-18 19:37:00,42.4,37.9,30.03,WSW,250,0.0,4.0,84,0.00,,,0.01,0,Wunderground v.1.15,2013-10-19 00:37:00,
2013-10-18 19:38:00,42.4,37.9,30.03,WSW,250,0.0,4.0,84,0.00,,,0.01,0,Wunderground v.1.15,2013-10-19 00:38:00,
2013-10-18 19:41:00,42.4,37.9,30.03,WSW,250,1.0,4.0,84,0.00,,,0.01,0,Wunderground v.1.15,2013-10-19 00:41:00,
2013-10-18 19:42:00,42.4,37.9,30.03,WSW,249,2.0,6.0,84,0.00,,,0.01,0,Wunderground v.1.15,2013-10-19 00:42:00,
2013-10-18 19:43:00,42.4,37.9,30.03,WSW,249,4.0,6.0,84,0.00,,,0.01,0,Wunderground v.1.15,2013-10-19 00:43:00,
2013-10-18 19:46:00,42.4,37.9,30.03,WSW,248,2.0,6.0,84,0.00,,,0.01,0,Wunderground v.1.15,2013-10-19 00:46:00,
2013-10-18 19:47:00,42.4,37.9,30.03,WSW,248,1.0,6.0,84,0.00,,,0.01,0,Wunderground v.1.15,2013-10-19 00:47:00,
2013-10-18 19:48:00,42.4,37.9,30.03,WSW,248,3.0,6.0,84,0.00,,,0.01,0,Wunderground v.1.15,2013-10-19 00:48:00,
2013-10-18 19:49:00,42.4,37.6,30.03,WSW,248,2.0,6.0,83,0.00,,,0.01,0,Wunderground v.1.15,2013-10-19 00:49:00,
2013-10-18 19:51:00,42.3,37.5,30.03,WSW,248,1.0,3.0,83,0.00,,,0.01,0,Wunderground v.1.15,2013-10-19 00:51:00,
2013-10-18 19:52:00,42.3,37.5,30.03,WSW,248,0.0,3.0,83,0.00,,,0.01,0,Wunderground v.1.15,2013-10-19 00:52:00,
2013-10-18 19:53:00,42.3,37.5,30.03,WSW,248,3.0,3.0,83,0.00,,,0.01,0,Wunderground v.1.15,2013-10-19 00:53:00,
2013-10-18 19:54:00,42.3,37.5,30.03,WSW,248,0.0,4.0,83,0.00,,,0.01,0,Wunderground v.1.15,2013-10-19 00:54:00,
2013-10-18 19:55:00,42.3,37.5,30.03,WSW,248,0.0,4.0,83,0.00,,,0.01,0,Wunderground v.1.15,2013-10-19 00:55:00,
2013-10-18 19:57:00,42.3,37.8,30.03,WSW,248,0.0,4.0,84,0.00,,,0.01,0,Wunderground v.1.15,2013-10-19 00:57:00,
2013-10-18 19:58:00,42.3,37.8,30.03,WSW,248,0.0,4.0,84,0.00,,,0.01,0,Wunderground v.1.15,2013-10-19 00:58:00,
2013-10-18 19:59:00,42.3,37.8,30.03,WSW,248,1.0,4.0,84,0.00,,,0.01,0,Wunderground v.1.15,2013-10-19 00:59:00,
2013-10-18 20:00:00,42.2,37.7,30.03,WSW,248,1.0,3.0,84,0.00,,,0.01,0,Wunderground v.1.15,2013-10-19 01:00:00,
2013-10-18 20:02:00,42.2,37.7,30.03,WSW,248,2.0,5.0,84,0.00,,,0.01,0,Wunderground v.1.15,2013-10-19 01:02:00,
2013-10-18 20:03:00,42.1,37.6,30.03,WSW,248,2.0,5.0,84,0.00,,,0.01,0,Wunderground v.1.15,2013-10-19 01:03:00,
2013-10-18 20:04:00,42.1,37.6,30.03,WSW,248,2.0,5.0,84,0.00,,,0.01,0,Wunderground v.1.15,2013-10-19 01:04:00,
2013-10-18 20:05:00,42.0,37.5,30.03,WSW,248,1.0,5.0,84,0.00,,,0.01,0,Wunderground v.1.15,2013-10-19 01:05:00,
2013-10-18 20:07:00,42.0,37.5,30.03,WSW,248,0.0,5.0,84,0.00,,,0.01,0,Wunderground v.1.15,2013-10-19 01:07:00,
2013-10-18 20:08:00,42.0,37.5,30.03,WSW,248,0.0,5.0,84,0.00,,,0.01,0,Wunderground v.1.15,2013-10-19 01:08:00,
2013-10-18 20:10:00,42.0,37.5,30.03,WSW,248,0.0,1.0,84,0.00,,,0.01,0,Wunderground v.1.15,2013-10-19 01:10:00,
2013-10-18 20:12:00,41.9,37.4,30.03,WSW,249,3.0,4.0,84,0.00,,,0.01,0,Wunderground v.1.15,2013-10-19 01:12:00,
2013-10-18 20:13:00,41.9,37.4,30.03,WSW,247,0.0,5.0,84,0.00,,,0.01,0,Wunderground v.1.15,2013-10-19 01:13:00,
2013-10-18 20:14:00,41.9,37.4,30.03,WSW,247,2.0,5.0,84,0.00,,,0.01,0,Wunderground v.1.15,2013-10-19 01:14:00,
2013-10-18 20:15:00,41.8,37.3,30.03,WSW,247,0.0,5.0,84,0.00,,,0.01,0,Wunderground v.1.15,2013-10-19 01:15:00,
2013-10-18 20:16:00,41.8,37.3,30.03,WSW,247,2.0,5.0,84,0.00,,,0.01,0,Wunderground v.1.15,2013-10-19 01:16:00,
2013-10-18 20:18:00,41.8,37.3,30.03,WSW,247,0.0,5.0,84,0.00,,,0.01,0,Wunderground v.1.15,2013-10-19 01:18:00,
2013-10-18 20:19:00,41.8,37.3,30.03,WSW,247,3.0,5.0,84,0.00,,,0.01,0,Wunderground v.1.15,2013-10-19 01:19:00,
2013-10-18 20:20:00,41.7,37.2,30.03,WSW,246,1.0,3.0,84,0.00,,,0.01,0,Wunderground v.1.15,2013-10-19 01:20:00,
2013-10-18 20:21:00,41.7,37.2,30.03,WSW,246,0.0,3.0,84,0.00,,,0.01,0,Wunderground v.1.15,2013-10-19 01:21:00,
2013-10-18 20:23:00,41.7,37.2,30.03,WSW,246,0.0,3.0,84,0.00,,,0.01,0,Wunderground v.1.15,2013-10-19 01:23:00,
2013-10-18 20:24:00,41.7,37.2,30.03,WSW,246,0.0,3.0,84,0.00,,,0.01,0,Wunderground v.1.15,2013-10-19 01:24:00,
2013-10-18 20:26:00,41.7,37.2,30.03,WSW,246,2.0,3.0,84,0.00,,,0.01,0,Wunderground v.1.15,2013-10-19 01:26:00,
2013-10-18 20:27:00,41.7,37.2,30.03,WSW,246,2.0,3.0,84,0.00,,,0.01,0,Wunderground v.1.15,2013-10-19 01:27:00,
2013-10-18 20:28:00,41.7,37.2,30.03,WSW,246,0.0,3.0,84,0.00,,,0.01,0,Wunderground v.1.15,2013-10-19 01:28:00,
2013-10-18 20:29:00,41.7,37.2,30.03,WSW,246,1.0,3.0,84,0.00,,,0.01,0,Wunderground v.1.15,2013-10-19 01:29:00,
2013-10-18 20:31:00,41.7,37.2,30.03,WSW,246,0.0,3.0,84,0.00,,,0.01,0,Wunderground v.1.15,2013-10-19 01:31:00,
2013-10-18 20:32:00,41.7,37.2,30.03,WSW,246,2.0,3.0,84,0.00,,,0.01,0,Wunderground v.1.15,2013-10-19 01:32:00,
2013-10-18 20:34:00,41.6,37.1,30.02,WSW,246,3.0,4.0,84,0.00,,,0.01,0,Wunderground v.1.15,2013-10-19 01:34:00,
2013-10-18 20:35:00,41.6,37.1,30.02,WSW,246,1.0,4.0,84,0.00,,,0.01,0,Wunderground v.1.15,2013-10-19 01:35:00,
2013-10-18 20:36:00,41.6,37.1,30.02,WSW,246,3.0,4.0,84,0.00,,,0.01,0,Wunderground v.1.15,2013-10-19 01:36:00,
2013-10-18 20:37:00,41.6,37.1,30.03,WSW,246,2.0,4.0,84,0.00,,,0.01,0,Wunderground v.1.15,2013-10-19 01:37:00,
2013-10-18 20:39:00,41.6,37.1,30.02,WSW,246,3.0,3.0,84,0.00,,,0.01,0,Wunderground v.1.15,2013-10-19 01:39:00,
2013-10-18 20:40:00,41.6,37.1,30.02,WSW,246,3.0,3.0,84,0.00,,,0.01,0,Wunderground v.1.15,2013-10-19 01:40:00,
2013-10-18 20:42:00,41.6,37.1,30.02,WSW,246,2.0,4.0,84,0.00,,,0.01,0,Wunderground v.1.15,2013-10-19 01:42:00,
2013-10-18 20:45:00,41.6,37.4,30.02,WSW,246,2.0,4.0,85,0.00,,,0.01,0,Wunderground v.1.15,2013-10-19 01:45:00,
2013-10-18 20:46:00,41.6,37.4,30.02,WSW,246,1.0,4.0,85,0.00,,,0.01,0,Wunderground v.1.15,2013-10-19 01:46:00,
2013-10-18 20:47:00,41.6,37.4,30.02,WSW,246,3.0,5.0,85,0.00,,,0.01,0,Wunderground v.1.15,2013-10-19 01:47:00,
2013-10-18 20:50:00,41.5,37.3,30.02,WSW,246,2.0,2.0,85,0.00,,,0.01,0,Wunderground v.1.15,2013-10-19 01:50:00,
2013-10-18 20:51:00,41.5,37.3,30.02,WSW,246,1.0,2.0,85,0.00,,,0.01,0,Wunderground v.1.15,2013-10-19 01:51:00,
2013-10-18 20:52:00,41.5,37.3,30.02,WSW,246,2.0,2.0,85,0.00,,,0.01,0,Wunderground v.1.15,2013-10-19 01:52:00,
2013-10-18 20:53:00,41.5,37.3,30.02,WSW,246,0.0,2.0,85,0.00,,,0.01,0,Wunderground v.1.15,2013-10-19 01:53:00,
2013-10-18 20:56:00,41.4,37.2,30.02,WSW,246,1.0,2.0,85,0.00,,,0.01,0,Wunderground v.1.15,2013-10-19 01:56:00,
2013-10-18 20:58:00,41.4,37.5,30.02,WSW,246,1.0,2.0,86,0.00,,,0.01,0,Wunderground v.1.15,2013-10-19 01:58:00,
2013-10-18 21:01:00,41.3,37.1,30.02,WSW,246,0.0,2.0,85,0.00,,,0.01,0,Wunderground v.1.15,2013-10-19 02:01:00,
2013-10-18 21:02:00,41.3,37.1,30.02,WSW,246,0.0,2.0,85,0.00,,,0.01,0,Wunderground v.1.15,2013-10-19 02:02:00,
2013-10-18 21:03:00,41.3,37.4,30.02,WSW,246,1.0,2.0,86,0.00,,,0.01,0,Wunderground v.1.15,2013-10-19 02:03:00,
2013-10-18 21:06:00,41.2,37.3,30.02,WSW,246,0.0,2.0,86,0.00,,,0.01,0,Wunderground v.1.15,2013-10-19 02:06:00,
2013-10-18 21:07:00,41.2,37.3,30.02,WSW,246,0.0,2.0,86,0.00,,,0.01,0,Wunderground v.1.15,2013-10-19 02:07:00,
2013-10-18 21:08:00,41.2,37.3,30.02,WSW,246,0.0,2.0,86,0.00,,,0.01,0,Wunderground v.1.15,2013-10-19 02:08:00,
2013-10-18 21:11:00,41.1,37.2,30.02,WSW,246,0.0,0.0,86,0.00,,,0.01,0,Wunderground v.1.15,2013-10-19 02:11:00,
2013-10-18 21:12:00,41.1,37.2,30.02,WSW,246,0.0,1.0,86,0.00,,,0.01,0,Wunderground v.1.15,2013-10-19 02:12:00,
2013-10-18 21:13:00,41.1,37.2,30.02,WSW,246,0.0,2.0,86,0.00,,,0.01,0,Wunderground v.1.15,2013-10-19 02:13:00,
2013-10-18 21:17:00,41.0,37.1,30.02,WSW,246,1.0,2.0,86,0.00,,,0.01,0,Wunderground v.1.15,2013-10-19 02:17:00,
2013-10-18 21:18:00,41.0,37.1,30.02,WSW,246,0.0,2.0,86,0.00,,,0.01,0,Wunderground v.1.15,2013-10-19 02:18:00,
2013-10-18 21:19:00,40.9,37.3,30.02,WSW,246,0.0,2.0,87,0.00,,,0.01,0,Wunderground v.1.15,2013-10-19 02:19:00,
2013-10-18 21:22:00,40.9,37.3,30.02,WSW,246,0.0,3.0,87,0.00,,,0.01,0,Wunderground v.1.15,2013-10-19 02:22:00,
2013-10-18 21:23:00,40.9,37.3,30.02,WSW,246,0.0,3.0,87,0.00,,,0.01,0,Wunderground v.1.15,2013-10-19 02:23:00,
2013-10-18 21:24:00,40.9,37.3,30.02,WSW,246,1.0,3.0,87,0.00,,,0.01,0,Wunderground v.1.15,2013-10-19 02:24:00,
2013-10-18 21:25:00,40.9,37.3,30.02,WSW,246,1.0,3.0,87,0.00,,,0.01,0,Wunderground v.1.15,2013-10-19 02:25:00,
2013-10-18 21:27:00,40.8,37.2,30.02,WSW,246,2.0,3.0,87,0.00,,,0.01,0,Wunderground v.1.15,2013-10-19 02:27:00,
2013-10-18 21:28:00,40.8,37.2,30.02,WSW,246,0.0,3.0,87,0.00,,,0.01,0,Wunderground v.1.15,2013-10-19 02:28:00,
2013-10-18 21:29:00,40.8,37.2,30.02,WSW,246,0.0,3.0,87,0.00,,,0.01,0,Wunderground v.1.15,2013-10-19 02:29:00,
2013-10-18 21:30:00,40.8,37.2,30.02,WSW,246,0.0,1.0,87,0.00,,,0.01,0,Wunderground v.1.15,2013-10-19 02:30:00,
2013-10-18 21:32:00,40.8,37.2,30.02,WSW,246,0.0,3.0,87,0.00,,,0.01,0,Wunderground v.1.15,2013-10-19 02:32:00,
2013-10-18 21:33:00,40.8,37.2,30.02,WSW,246,0.0,3.0,87,0.00,,,0.01,0,Wunderground v.1.15,2013-10-19 02:33:00,
2013-10-18 21:34:00,40.8,37.2,30.02,WSW,246,1.0,3.0,87,0.00,,,0.01,0,Wunderground v.1.15,2013-10-19 02:34:00,
2013-10-18 21:35:00,40.7,37.1,30.02,WSW,246,0.0,3.0,87,0.00,,,0.01,0,Wunderground v.1.15,2013-10-19 02:35:00,
2013-10-18 21:38:00,40.7,37.1,30.02,WSW,246,2.0,3.0,87,0.00,,,0.01,0,Wunderground v.1.15,2013-10-19 02:38:00,
2013-10-18 21:39:00,40.7,37.1,30.02,WSW,246,0.0,3.0,87,0.00,,,0.01,0,Wunderground v.1.15,2013-10-19 02:39:00,
2013-10-18 21:40:00,40.7,37.4,30.02,WSW,246,1.0,1.0,88,0.00,,,0.01,0,Wunderground v.1.15,2013-10-19 02:40:00,
2013-10-18 21:42:00,40.6,37.3,30.02,WSW,246,0.0,1.0,88,0.00,,,0.01,0,Wunderground v.1.15,2013-10-19 02:42:00,
2013-10-18 21:44:00,40.6,37.3,30.01,WSW,246,2.0,2.0,88,0.00,,,0.01,0,Wunderground v.1.15,2013-10-19 02:44:00,
2013-10-18 21:45:00,40.6,37.3,30.02,WSW,246,0.0,2.0,88,0.00,,,0.01,0,Wunderground v.1.15,2013-10-19 02:45:00,
2013-10-18 21:46:00,40.6,37.3,30.02,WSW,246,0.0,2.0,88,0.00,,,0.01,0,Wunderground v.1.15,2013-10-19 02:46:00,
2013-10-18 21:47:00,40.6,37.3,30.01,WSW,246,0.0,2.0,88,0.00,,,0.01,0,Wunderground v.1.15,2013-10-19 02:47:00,
2013-10-18 21:49:00,40.6,37.3,30.01,WSW,246,0.0,2.0,88,0.00,,,0.01,0,Wunderground v.1.15,2013-10-19 02:49:00,
2013-10-18 21:50:00,40.5,37.2,30.02,WSW,246,0.0,1.0,88,0.00,,,0.01,0,Wunderground v.1.15,2013-10-19 02:50:00,
2013-10-18 21:52:00,40.5,37.2,30.02,WSW,246,0.0,2.0,88,0.00,,,0.01,0,Wunderground v.1.15,2013-10-19 02:52:00,
2013-10-18 21:53:00,40.5,37.2,30.02,WSW,246,0.0,3.0,88,0.00,,,0.01,0,Wunderground v.1.15,2013-10-19 02:53:00,
2013-10-18 21:54:00,40.5,37.2,30.02,WSW,246,2.0,3.0,88,0.00,,,0.01,0,Wunderground v.1.15,2013-10-19 02:54:00,
2013-10-18 21:55:00,40.5,37.2,30.02,WSW,246,1.0,3.0,88,0.00,,,0.01,0,Wunderground v.1.15,2013-10-19 02:55:00,
2013-10-18 21:57:00,40.5,37.2,30.02,WSW,246,0.0,3.0,88,0.00,,,0.01,0,Wunderground v.1.15,2013-10-19 02:57:00,
2013-10-18 21:58:00,40.4,37.1,30.02,WSW,246,0.0,3.0,88,0.00,,,0.01,0,Wunderground v.1.15,2013-10-19 02:58:00,
2013-10-18 21:59:00,40.4,37.1,30.02,WSW,246,2.0,3.0,88,0.00,,,0.01,0,Wunderground v.1.15,2013-10-19 02:59:00,
2013-10-18 22:00:00,40.4,37.1,30.02,WSW,246,1.0,2.0,88,0.00,,,0.01,0,Wunderground v.1.15,2013-10-19 03:00:00,
2013-10-18 22:01:00,40.4,37.1,30.02,WSW,246,1.0,2.0,88,0.00,,,0.01,0,Wunderground v.1.15,2013-10-19 03:01:00,
2013-10-18 22:03:00,40.4,37.4,30.02,WSW,246,0.0,3.0,89,0.00,,,0.01,0,Wunderground v.1.15,2013-10-19 03:03:00,
2013-10-18 22:04:00,40.4,37.4,30.02,WSW,246,0.0,3.0,89,0.00,,,0.01,0,Wunderground v.1.15,2013-10-19 03:04:00,
2013-10-18 22:05:00,40.4,37.4,30.02,WSW,246,0.0,3.0,89,0.00,,,0.01,0,Wunderground v.1.15,2013-10-19 03:05:00,
2013-10-18 22:06:00,40.4,37.4,30.02,WSW,246,0.0,3.0,89,0.00,,,0.01,0,Wunderground v.1.15,2013-10-19 03:06:00,
2013-10-18 22:09:00,40.4,37.4,30.02,WSW,246,0.0,3.0,89,0.00,,,0.01,0,Wunderground v.1.15,2013-10-19 03:09:00,
2013-10-18 22:10:00,40.4,37.4,30.02,WSW,246,0.0,0.0,89,0.00,,,0.01,0,Wunderground v.1.15,2013-10-19 03:10:00,
2013-10-18 22:11:00,40.4,37.4,30.02,WSW,246,0.0,0.0,89,0.00,,,0.01,0,Wunderground v.1.15,2013-10-19 03:11:00,
2013-10-18 22:12:00,40.4,37.4,30.02,WSW,246,0.0,1.0,89,0.00,,,0.01,0,Wunderground v.1.15,2013-10-19 03:12:00,
2013-10-18 22:14:00,40.3,37.3,30.02,WSW,246,0.0,1.0,89,0.00,,,0.01,0,Wunderground v.1.15,2013-10-19 03:14:00,
2013-10-18 22:15:00,40.4,37.4,30.02,WSW,246,1.0,1.0,89,0.00,,,0.01,0,Wunderground v.1.15,2013-10-19 03:15:00,
2013-10-18 22:16:00,40.3,37.3,30.02,WSW,246,0.0,1.0,89,0.00,,,0.01,0,Wunderground v.1.15,2013-10-19 03:16:00,
2013-10-18 22:17:00,40.3,37.3,30.01,WSW,246,0.0,1.0,89,0.00,,,0.01,0,Wunderground v.1.15,2013-10-19 03:17:00,
2013-10-18 22:19:00,40.3,37.3,30.01,WSW,246,0.0,1.0,89,0.00,,,0.01,0,Wunderground v.1.15,2013-10-19 03:19:00,
2013-10-18 22:20:00,40.3,37.3,30.01,WSW,246,0.0,0.0,89,0.00,,,0.01,0,Wunderground v.1.15,2013-10-19 03:20:00,
2013-10-18 22:21:00,40.3,37.3,30.01,WSW,246,0.0,0.0,89,0.00,,,0.01,0,Wunderground v.1.15,2013-10-19 03:21:00,
2013-10-18 22:22:00,40.3,37.3,30.01,WSW,246,0.0,0.0,89,0.00,,,0.01,0,Wunderground v.1.15,2013-10-19 03:22:00,
2013-10-18 22:23:00,40.3,37.3,30.01,WSW,246,0.0,0.0,89,0.00,,,0.01,0,Wunderground v.1.15,2013-10-19 03:23:00,
2013-10-18 22:24:00,40.3,37.3,30.01,WSW,246,0.0,0.0,89,0.00,,,0.01,0,Wunderground v.1.15,2013-10-19 03:24:00,
2013-10-18 22:25:00,40.3,37.3,30.01,WSW,246,0.0,0.0,89,0.00,,,0.01,0,Wunderground v.1.15,2013-10-19 03:25:00,
2013-10-18 22:27:00,40.3,37.3,30.01,WSW,246,0.0,0.0,89,0.00,,,0.01,0,Wunderground v.1.15,2013-10-19 03:27:00,
2013-10-18 22:28:00,40.2,37.2,30.01,WSW,246,0.0,1.0,89,0.00,,,0.01,0,Wunderground v.1.15,2013-10-19 03:28:00,
2013-10-18 22:29:00,40.2,37.2,30.01,WSW,246,0.0,1.0,89,0.00,,,0.01,0,Wunderground v.1.15,2013-10-19 03:29:00,
2013-10-18 22:30:00,40.2,37.2,30.01,WSW,246,0.0,2.0,89,0.00,,,0.01,0,Wunderground v.1.15,2013-10-19 03:30:00,
2013-10-18 22:32:00,40.2,37.2,30.01,WSW,246,0.0,2.0,89,0.00,,,0.01,0,Wunderground v.1.15,2013-10-19 03:32:00,
2013-10-18 22:33:00,40.1,37.1,30.01,WSW,246,0.0,2.0,89,0.00,,,0.01,0,Wunderground v.1.15,2013-10-19 03:33:00,
2013-10-18 22:35:00,40.1,37.1,30.01,WSW,246,0.0,2.0,89,0.00,,,0.01,0,Wunderground v.1.15,2013-10-19 03:35:00,
2013-10-18 22:36:00,40.1,37.1,30.01,WSW,246,0.0,2.0,89,0.00,,,0.01,0,Wunderground v.1.15,2013-10-19 03:36:00,
2013-10-18 22:37:00,40.0,37.0,30.01,WSW,246,0.0,2.0,89,0.00,,,0.01,0,Wunderground v.1.15,2013-10-19 03:37:00,
2013-10-18 22:38:00,40.0,37.0,30.01,WSW,246,0.0,2.0,89,0.00,,,0.01,0,Wunderground v.1.15,2013-10-19 03:38:00,
2013-10-18 22:41:00,40.0,37.0,30.01,WSW,246,0.0,0.0,89,0.00,,,0.01,0,Wunderground v.1.15,2013-10-19 03:41:00,
2013-10-18 22:43:00,39.9,36.9,30.01,WSW,246,0.0,0.0,89,0.00,,,0.01,0,Wunderground v.1.15,2013-10-19 03:43:00,
2013-10-18 22:46:00,39.9,36.9,30.01,WSW,246,0.0,0.0,89,0.00,,,0.01,0,Wunderground v.1.15,2013-10-19 03:46:00,
2013-10-18 22:48:00,39.8,36.8,30.01,WSW,246,0.0,0.0,89,0.00,,,0.01,0,Wunderground v.1.15,2013-10-19 03:48:00,
2013-10-18 22:49:00,39.8,36.8,30.01,WSW,246,0.0,0.0,89,0.00,,,0.01,0,Wunderground v.1.15,2013-10-19 03:49:00,
2013-10-18 22:51:00,39.8,37.1,30.01,WSW,246,0.0,0.0,90,0.00,,,0.01,0,Wunderground v.1.15,2013-10-19 03:51:00,
2013-10-18 22:53:00,39.7,37.0,30.01,WSW,246,0.0,0.0,90,0.00,,,0.01,0,Wunderground v.1.15,2013-10-19 03:53:00,
2013-10-18 22:54:00,39.7,37.0,30.01,WSW,246,0.0,0.0,90,0.00,,,0.01,0,Wunderground v.1.15,2013-10-19 03:54:00,
2013-10-18 22:56:00,39.7,37.0,30.01,WSW,246,0.0,0.0,90,0.00,,,0.01,0,Wunderground v.1.15,2013-10-19 03:56:00,
2013-10-18 22:57:00,39.7,37.0,30.01,WSW,246,0.0,0.0,90,0.00,,,0.01,0,Wunderground v.1.15,2013-10-19 03:57:00,
2013-10-18 22:58:00,39.6,36.9,30.01,WSW,246,0.0,0.0,90,0.00,,,0.01,0,Wunderground v.1.15,2013-10-19 03:58:00,
2013-10-18 22:59:00,39.6,36.9,30.01,WSW,246,0.0,0.0,90,0.00,,,0.01,0,Wunderground v.1.15,2013-10-19 03:59:00,
2013-10-18 23:00:00,39.6,36.9,30.01,WSW,246,0.0,0.0,90,0.00,,,0.01,0,Wunderground v.1.15,2013-10-19 04:00:00,
2013-10-18 23:01:00,39.6,36.9,30.01,WSW,246,0.0,0.0,90,0.00,,,0.01,0,Wunderground v.1.15,2013-10-19 04:01:00,
2013-10-18 23:02:00,39.6,36.9,30.01,WSW,246,0.0,0.0,90,0.00,,,0.01,0,Wunderground v.1.15,2013-10-19 04:02:00,
2013-10-18 23:06:00,39.5,36.8,30.01,WSW,246,0.0,0.0,90,0.00,,,0.01,0,Wunderground v.1.15,2013-10-19 04:06:00,
2013-10-18 23:07:00,39.4,36.7,30.01,WSW,246,0.0,0.0,90,0.00,,,0.01,0,Wunderground v.1.15,2013-10-19 04:07:00,
2013-10-18 23:08:00,39.4,36.7,30.01,WSW,246,0.0,0.0,90,0.00,,,0.01,0,Wunderground v.1.15,2013-10-19 04:08:00,
2013-10-18 23:11:00,39.3,36.6,30.01,WSW,246,0.0,0.0,90,0.00,,,0.01,0,Wunderground v.1.15,2013-10-19 04:11:00,
2013-10-18 23:12:00,39.3,36.6,30.01,WSW,246,0.0,0.0,90,0.00,,,0.01,0,Wunderground v.1.15,2013-10-19 04:12:00,
2013-10-18 23:13:00,39.2,36.5,30.01,WSW,246,0.0,0.0,90,0.00,,,0.01,0,Wunderground v.1.15,2013-10-19 04:13:00,
2013-10-18 23:16:00,39.1,36.4,30.01,WSW,246,0.0,0.0,90,0.00,,,0.01,0,Wunderground v.1.15,2013-10-19 04:16:00,
2013-10-18 23:17:00,39.1,36.4,30.01,WSW,246,0.0,0.0,90,0.00,,,0.01,0,Wunderground v.1.15,2013-10-19 04:17:00,
2013-10-18 23:18:00,39.1,36.4,30.01,WSW,246,0.0,0.0,90,0.00,,,0.01,0,Wunderground v.1.15,2013-10-19 04:18:00,
2013-10-18 23:21:00,39.0,36.3,30.01,WSW,246,0.0,0.0,90,0.00,,,0.01,0,Wunderground v.1.15,2013-10-19 04:21:00,
2013-10-18 23:24:00,38.8,36.4,30.01,WSW,246,0.0,0.0,91,0.00,,,0.01,0,Wunderground v.1.15,2013-10-19 04:24:00,
2013-10-18 23:25:00,38.9,36.5,30.01,WSW,246,0.0,0.0,91,0.00,,,0.01,0,Wunderground v.1.15,2013-10-19 04:25:00,
2013-10-18 23:26:00,38.8,36.4,30.01,WSW,246,0.0,0.0,91,0.00,,,0.01,0,Wunderground v.1.15,2013-10-19 04:26:00,
2013-10-18 23:27:00,38.8,36.4,30.01,WSW,246,0.0,0.0,91,0.00,,,0.01,0,Wunderground v.1.15,2013-10-19 04:27:00,
2013-10-18 23:30:00,38.7,36.3,30.01,WSW,246,0.0,0.0,91,0.00,,,0.01,0,Wunderground v.1.15,2013-10-19 04:30:00,
2013-10-18 23:31:00,38.6,36.2,30.00,WSW,246,0.0,0.0,91,0.00,,,0.01,0,Wunderground v.1.15,2013-10-19 04:31:00,
2013-10-18 23:32:00,38.6,36.2,30.00,WSW,246,0.0,0.0,91,0.00,,,0.01,0,Wunderground v.1.15,2013-10-19 04:32:00,
2013-10-18 23:35:00,38.4,36.0,30.00,WSW,246,0.0,0.0,91,0.00,,,0.01,0,Wunderground v.1.15,2013-10-19 04:35:00,
2013-10-18 23:36:00,38.4,36.0,30.00,WSW,246,0.0,0.0,91,0.00,,,0.01,0,Wunderground v.1.15,2013-10-19 04:36:00,
2013-10-18 23:37:00,38.4,36.0,30.00,WSW,246,0.0,0.0,91,0.00,,,0.01,0,Wunderground v.1.15,2013-10-19 04:37:00,
2013-10-18 23:40:00,38.3,35.9,30.00,WSW,246,0.0,0.0,91,0.00,,,0.01,0,Wunderground v.1.15,2013-10-19 04:40:00,
2013-10-18 23:41:00,38.3,35.9,30.00,WSW,246,0.0,0.0,91,0.00,,,0.01,0,Wunderground v.1.15,2013-10-19 04:41:00,
2013-10-18 23:42:00,38.3,35.9,30.00,WSW,246,0.0,0.0,91,0.00,,,0.01,0,Wunderground v.1.15,2013-10-19 04:42:00,
2013-10-18 23:45:00,38.2,36.1,30.00,WSW,246,0.0,0.0,92,0.00,,,0.01,0,Wunderground v.1.15,2013-10-19 04:45:00,
2013-10-18 23:46:00,38.2,36.1,30.00,WSW,246,0.0,0.0,92,0.00,,,0.01,0,Wunderground v.1.15,2013-10-19 04:46:00,
2013-10-18 23:47:00,38.2,36.1,30.00,WSW,246,0.0,0.0,92,0.00,,,0.01,0,Wunderground v.1.15,2013-10-19 04:47:00,
2013-10-18 23:48:00,38.2,36.1,30.00,WSW,246,0.0,0.0,92,0.00,,,0.01,0,Wunderground v.1.15,2013-10-19 04:48:00,
2013-10-18 23:49:00,38.1,36.0,30.00,WSW,246,0.0,0.0,92,0.00,,,0.01,0,Wunderground v.1.15,2013-10-19 04:49:00,
2013-10-18 23:50:00,38.1,36.0,30.00,WSW,246,0.0,0.0,92,0.00,,,0.01,0,Wunderground v.1.15,2013-10-19 04:50:00,
2013-10-18 23:51:00,38.1,36.0,30.00,WSW,246,0.0,0.0,92,0.00,,,0.01,0,Wunderground v.1.15,2013-10-19 04:51:00,
2013-10-18 23:52:00,38.1,36.0,30.00,WSW,246,0.0,0.0,92,0.00,,,0.01,0,Wunderground v.1.15,2013-10-19 04:52:00,
2013-10-18 23:53:00,38.1,36.0,30.00,WSW,246,0.0,0.0,92,0.00,,,0.01,0,Wunderground v.1.15,2013-10-19 04:53:00,
2013-10-18 23:54:00,38.1,36.0,30.00,WSW,246,0.0,0.0,92,0.00,,,0.01,0,Wunderground v.1.15,2013-10-19 04:54:00,
2013-10-18 23:56:00,38.1,36.0,30.00,WSW,246,0.0,0.0,92,0.00,,,0.01,0,Wunderground v.1.15,2013-10-19 04:56:00,
2013-10-18 23:57:00,38.1,36.0,30.00,WSW,246,0.0,0.0,92,0.00,,,0.01,0,Wunderground v.1.15,2013-10-19 04:57:00,
2013-10-18 23:58:00,38.0,35.9,30.00,WSW,246,0.0,0.0,92,0.00,,,0.01,0,Wunderground v.1.15,2013-10-19 04:58:00,